Observation data for Stratford on 02/14/2020      Previous  Date  Next       Current Mesonet Observations  Soil Data  Daily Summary Page  Observations in Plain Language
KST4 140600Z 14007KT M06/M11 A3028 RMK A01 T10631114  RH  067%=      5-min Rain = 0
KST4 140601Z 14008KT M06/M11 A3028 RMK A01 T10631113  RH  067%=      5-min Rain = 0
KST4 140602Z 14008KT M06/M11 A3028 RMK A01 T10631114  RH  067%=      5-min Rain = 0
KST4 140603Z 14007KT M06/M11 A3028 RMK A01 T10631114  RH  067%=      5-min Rain = 0
KST4 140604Z 13006KT M06/M11 A3028 RMK A01 T10631114  RH  067%=      5-min Rain = 0
KST4 140605Z 12007KT M06/M11 A3028 RMK A01 T10631113  RH  067%=      5-min Rain = 0
KST4 140606Z 13006KT M06/M11 A3028 RMK A01 T10631114  RH  067%=      5-min Rain = 0
KST4 140607Z 12006KT M06/M11 A3028 RMK A01 T10631113  RH  067%=      5-min Rain = 0
KST4 140608Z 12007KT M06/M11 A3028 RMK A01 T10631113  RH  067%=      5-min Rain = 0
KST4 140609Z 12007KT M06/M11 A3028 RMK A01 T10631114  RH  067%=      5-min Rain = 0
KST4 140610Z 13006KT M06/M11 A3028 RMK A01 T10631114  RH  067%=      5-min Rain = 0
KST4 140611Z 13006KT M06/M11 A3028 RMK A01 T10631113  RH  068%=      5-min Rain = 0
KST4 140612Z 13007KT M06/M11 A3028 RMK A01 T10631113  RH  068%=      5-min Rain = 0
KST4 140613Z 13007KT M06/M11 A3028 RMK A01 T10631113  RH  068%=      5-min Rain = 0
KST4 140614Z 13007KT M06/M11 A3028 RMK A01 T10631114  RH  068%=      5-min Rain = 0
KST4 140615Z 14007KT M06/M11 A3028 RMK A01 T10631113  RH  068%=      5-min Rain = 0
KST4 140616Z 14007KT M06/M11 A3028 RMK A01 T10631113  RH  068%=      5-min Rain = 0
KST4 140617Z 14007KT M06/M11 A3028 RMK A01 T10631113  RH  068%=      5-min Rain = 0
KST4 140618Z 14008KT M06/M11 A3028 RMK A01 T10631113  RH  068%=      5-min Rain = 0
KST4 140619Z 14008KT M06/M11 A3028 RMK A01 T10631113  RH  068%=      5-min Rain = 0
KST4 140620Z 14008KT M06/M11 A3028 RMK A01 T10631114  RH  068%=      5-min Rain = 0
KST4 140621Z 14007KT M06/M11 A3028 RMK A01 T10631113  RH  068%=      5-min Rain = 0
KST4 140622Z 14007KT M06/M11 A3028 RMK A01 T10631113  RH  068%=      5-min Rain = 0
KST4 140623Z 14007KT M06/M11 A3028 RMK A01 T10631113  RH  068%=      5-min Rain = 0
KST4 140624Z 14007KT M06/M11 A3028 RMK A01 T10631114  RH  068%=      5-min Rain = 0
KST4 140625Z 14007KT M06/M11 A3027 RMK A01 T10631113  RH  068%=      5-min Rain = 0
KST4 140626Z 14007KT M06/M11 A3027 RMK A01 T10631113  RH  068%=      5-min Rain = 0
KST4 140627Z 14008KT M06/M11 A3027 RMK A01 T10631113  RH  068%=      5-min Rain = 0
KST4 140628Z 14008KT M06/M11 A3027 RMK A01 T10631112  RH  068%=      5-min Rain = 0
KST4 140629Z 14008KT M06/M11 A3027 RMK A01 T10631112  RH  068%=      5-min Rain = 0
KST4 140630Z 14008KT M06/M11 A3027 RMK A01 T10631112  RH  068%=      5-min Rain = 0
KST4 140631Z 13007KT M06/M11 A3027 RMK A01 T10631112  RH  068%=      5-min Rain = 0
KST4 140632Z 13007KT M06/M11 A3027 RMK A01 T10631112  RH  069%=      5-min Rain = 0
KST4 140633Z 14007KT M06/M11 A3027 RMK A01 T10631112  RH  069%=      5-min Rain = 0
KST4 140634Z 14008KT M06/M11 A3027 RMK A01 T10631112  RH  069%=      5-min Rain = 0
KST4 140635Z 14008KT M06/M11 A3027 RMK A01 T10631112  RH  069%=      5-min Rain = 0
KST4 140636Z 14007KT M06/M11 A3027 RMK A01 T10641112  RH  068%=      5-min Rain = 0
KST4 140637Z 14007KT M06/M11 A3027 RMK A01 T10641112  RH  069%=      5-min Rain = 0
KST4 140638Z 13006KT M06/M11 A3027 RMK A01 T10641112  RH  069%=      5-min Rain = 0
KST4 140639Z 14008KT M06/M11 A3027 RMK A01 T10631111  RH  069%=      5-min Rain = 0
KST4 140640Z 14008KT M06/M11 A3027 RMK A01 T10641111  RH  069%=      5-min Rain = 0
KST4 140641Z 14008KT M06/M11 A3027 RMK A01 T10641111  RH  069%=      5-min Rain = 0
KST4 140642Z 14007KT M06/M11 A3027 RMK A01 T10641111  RH  069%=      5-min Rain = 0
KST4 140643Z 15007KT M06/M11 A3027 RMK A01 T10641111  RH  069%=      5-min Rain = 0
KST4 140644Z 14006KT M06/M11 A3027 RMK A01 T10631110  RH  069%=      5-min Rain = 0
KST4 140645Z 14007KT M06/M11 A3027 RMK A01 T10631110  RH  070%=      5-min Rain = 0
KST4 140646Z 14006KT M06/M11 A3027 RMK A01 T10631110  RH  069%=      5-min Rain = 0
KST4 140647Z 14007KT M06/M11 A3027 RMK A01 T10631110  RH  070%=      5-min Rain = 0
KST4 140648Z 14007KT M06/M11 A3027 RMK A01 T10631109  RH  070%=      5-min Rain = 0
KST4 140649Z 14007KT M06/M11 A3027 RMK A01 T10631109  RH  070%=      5-min Rain = 0
KST4 140650Z 13007KT M06/M11 A3027 RMK A01 T10631109  RH  070%=      5-min Rain = 0
KST4 140651Z 13007KT M06/M11 A3027 RMK A01 T10631110  RH  069%=      5-min Rain = 0
KST4 140652Z 14006KT M06/M11 A3027 RMK A01 T10631109  RH  070%=      5-min Rain = 0
KST4 140653Z 13006KT M06/M11 A3027 RMK A01 T10631109  RH  070%=      5-min Rain = 0
KST4 140654Z 13007KT M06/M11 A3027 RMK A01 T10631109  RH  070%=      5-min Rain = 0
KST4 140655Z 13007KT M06/M11 A3027 RMK A01 T10631109  RH  070%=      5-min Rain = 0
KST4 140656Z 13008KT M06/M11 A3027 RMK A01 T10631109  RH  070%=      5-min Rain = 0
KST4 140657Z 13008KT M06/M11 A3027 RMK A01 T10631109  RH  070%=      5-min Rain = 0
KST4 140658Z 13008KT M06/M11 A3027 RMK A01 T10631109  RH  070%=      5-min Rain = 0
KST4 140659Z 13007KT M06/M11 A3027 RMK A01 T10631109  RH  070%=      5-min Rain = 0
KST4 140700Z 14008KT M06/M11 A3027 RMK A01 T10631109  RH  070%=      5-min Rain = 0
KST4 140701Z 14007KT M06/M11 A3027 RMK A01 T10631109  RH  070%=      5-min Rain = 0
KST4 140702Z 14006KT M06/M11 A3027 RMK A01 T10631109  RH  070%=      5-min Rain = 0
KST4 140703Z 14006KT M06/M11 A3027 RMK A01 T10631109  RH  070%=      5-min Rain = 0
KST4 140704Z 15006KT M06/M11 A3027 RMK A01 T10631108  RH  070%=      5-min Rain = 0
KST4 140705Z 14006KT M06/M11 A3027 RMK A01 T10631108  RH  070%=      5-min Rain = 0
KST4 140706Z 14006KT M06/M11 A3027 RMK A01 T10631108  RH  071%=      5-min Rain = 0
KST4 140707Z 14007KT M06/M11 A3027 RMK A01 T10621106  RH  071%=      5-min Rain = 0
KST4 140708Z 15007KT M06/M11 A3027 RMK A01 T10621106  RH  071%=      5-min Rain = 0
KST4 140709Z 14008KT M06/M11 A3027 RMK A01 T10621108  RH  070%=      5-min Rain = 0
KST4 140710Z 14007KT M06/M11 A3027 RMK A01 T10621107  RH  070%=      5-min Rain = 0
KST4 140711Z 15006KT M06/M11 A3027 RMK A01 T10621107  RH  071%=      5-min Rain = 0
KST4 140712Z 15008KT M06/M11 A3027 RMK A01 T10621106  RH  071%=      5-min Rain = 0
KST4 140713Z 15009KT M06/M11 A3026 RMK A01 T10621107  RH  070%=      5-min Rain = 0
KST4 140714Z 15008KT M06/M11 A3027 RMK A01 T10621108  RH  070%=      5-min Rain = 0
KST4 140715Z 15009KT M06/M11 A3026 RMK A01 T10621108  RH  070%=      5-min Rain = 0
KST4 140716Z 14008KT M06/M11 A3026 RMK A01 T10621108  RH  070%=      5-min Rain = 0
KST4 140717Z 15007KT M06/M11 A3027 RMK A01 T10621108  RH  070%=      5-min Rain = 0
KST4 140718Z 15008KT M06/M11 A3027 RMK A01 T10621108  RH  070%=      5-min Rain = 0
KST4 140719Z 15007KT M06/M11 A3026 RMK A01 T10621107  RH  070%=      5-min Rain = 0
KST4 140720Z 15008KT M06/M11 A3026 RMK A01 T10631107  RH  071%=      5-min Rain = 0
KST4 140721Z 15009KT M06/M11 A3026 RMK A01 T10621107  RH  071%=      5-min Rain = 0
KST4 140722Z 14009KT M06/M11 A3026 RMK A01 T10621107  RH  070%=      5-min Rain = 0
KST4 140723Z 15008KT M06/M11 A3026 RMK A01 T10621107  RH  070%=      5-min Rain = 0
KST4 140724Z 15010KT M06/M11 A3026 RMK A01 T10621107  RH  070%=      5-min Rain = 0
KST4 140725Z 15008KT M06/M11 A3026 RMK A01 T10621108  RH  070%=      5-min Rain = 0
KST4 140726Z 15010KT M06/M11 A3026 RMK A01 T10621107  RH  070%=      5-min Rain = 0
KST4 140727Z 15009KT M06/M11 A3026 RMK A01 T10621107  RH  070%=      5-min Rain = 0
KST4 140728Z 15009KT M06/M11 A3026 RMK A01 T10621107  RH  070%=      5-min Rain = 0
KST4 140729Z 15008KT M06/M11 A3026 RMK A01 T10621107  RH  070%=      5-min Rain = 0
KST4 140730Z 15009KT M06/M11 A3026 RMK A01 T10621107  RH  071%=      5-min Rain = 0
KST4 140731Z 15010KT M06/M11 A3027 RMK A01 T10621106  RH  071%=      5-min Rain = 0
KST4 140732Z 15008KT M06/M11 A3026 RMK A01 T10621107  RH  070%=      5-min Rain = 0
KST4 140733Z 15008KT M06/M11 A3026 RMK A01 T10621107  RH  071%=      5-min Rain = 0
KST4 140734Z 15009KT M06/M11 A3026 RMK A01 T10621106  RH  071%=      5-min Rain = 0
KST4 140735Z 14009KT M06/M11 A3026 RMK A01 T10621107  RH  070%=      5-min Rain = 0
KST4 140736Z 14009KT M06/M11 A3026 RMK A01 T10621107  RH  071%=      5-min Rain = 0
KST4 140737Z 14009KT M06/M11 A3026 RMK A01 T10621107  RH  071%=      5-min Rain = 0
KST4 140738Z 15008KT M06/M11 A3026 RMK A01 T10621107  RH  071%=      5-min Rain = 0
KST4 140739Z 15009KT M06/M11 A3026 RMK A01 T10621106  RH  071%=      5-min Rain = 0
KST4 140740Z 15010KT M06/M11 A3026 RMK A01 T10621107  RH  071%=      5-min Rain = 0
KST4 140741Z 15008KT M06/M11 A3026 RMK A01 T10621107  RH  071%=      5-min Rain = 0
KST4 140742Z 14007KT M06/M11 A3026 RMK A01 T10621107  RH  071%=      5-min Rain = 0
KST4 140743Z 15007KT M06/M11 A3026 RMK A01 T10621106  RH  071%=      5-min Rain = 0
KST4 140744Z 15007KT M06/M11 A3026 RMK A01 T10621105  RH  072%=      5-min Rain = 0
KST4 140745Z 14009KT M06/M10 A3026 RMK A01 T10621104  RH  072%=      5-min Rain = 0
KST4 140746Z 15010KT M06/M11 A3026 RMK A01 T10621105  RH  071%=      5-min Rain = 0
KST4 140747Z 15010KT M06/M11 A3026 RMK A01 T10621106  RH  071%=      5-min Rain = 0
KST4 140748Z 15010KT M06/M11 A3026 RMK A01 T10621106  RH  071%=      5-min Rain = 0
KST4 140749Z 15009KT M06/M11 A3026 RMK A01 T10621106  RH  071%=      5-min Rain = 0
KST4 140750Z 15008KT M06/M11 A3027 RMK A01 T10621106  RH  071%=      5-min Rain = 0
KST4 140751Z 16009KT M06/M11 A3027 RMK A01 T10621105  RH  071%=      5-min Rain = 0
KST4 140752Z 16011KT M06/M11 A3026 RMK A01 T10621106  RH  071%=      5-min Rain = 0
KST4 140753Z 16008KT M06/M11 A3026 RMK A01 T10621106  RH  071%=      5-min Rain = 0
KST4 140754Z 15010KT M06/M11 A3026 RMK A01 T10621106  RH  071%=      5-min Rain = 0
KST4 140755Z 15010KT M06/M11 A3026 RMK A01 T10621106  RH  071%=      5-min Rain = 0
KST4 140756Z 15009KT M06/M11 A3026 RMK A01 T10621106  RH  071%=      5-min Rain = 0
KST4 140757Z 16009KT M06/M11 A3026 RMK A01 T10621106  RH  071%=      5-min Rain = 0
KST4 140758Z 16007KT M06/M11 A3026 RMK A01 T10621106  RH  071%=      5-min Rain = 0
KST4 140759Z 16008KT M06/M11 A3026 RMK A01 T10621105  RH  071%=      5-min Rain = 0
KST4 140800Z 16009KT M06/M11 A3026 RMK A01 T10611105  RH  071%=      5-min Rain = 0
KST4 140801Z 17010KT M06/M11 A3026 RMK A01 T10621105  RH  071%=      5-min Rain = 0
KST4 140802Z 16010KT M06/M11 A3026 RMK A01 T10611105  RH  071%=      5-min Rain = 0
KST4 140803Z 16009KT M06/M11 A3026 RMK A01 T10611105  RH  071%=      5-min Rain = 0
KST4 140804Z 16010KT M06/M11 A3026 RMK A01 T10611105  RH  071%=      5-min Rain = 0
KST4 140805Z 15009KT M06/M11 A3026 RMK A01 T10621107  RH  071%=      5-min Rain = 0
KST4 140806Z 16010KT M06/M11 A3026 RMK A01 T10621106  RH  071%=      5-min Rain = 0
KST4 140807Z 16009KT M06/M11 A3026 RMK A01 T10621106  RH  071%=      5-min Rain = 0
KST4 140808Z 15007KT M06/M11 A3026 RMK A01 T10631106  RH  071%=      5-min Rain = 0
KST4 140809Z 15006KT M06/M11 A3026 RMK A01 T10631106  RH  072%=      5-min Rain = 0
KST4 140810Z 15007KT M06/M11 A3026 RMK A01 T10631105  RH  072%=      5-min Rain = 0
KST4 140811Z 15008KT M06/M10 A3026 RMK A01 T10621104  RH  072%=      5-min Rain = 0
KST4 140812Z 15008KT M06/M11 A3026 RMK A01 T10621105  RH  072%=      5-min Rain = 0
KST4 140813Z 15007KT M06/M11 A3026 RMK A01 T10631105  RH  072%=      5-min Rain = 0
KST4 140814Z 14007KT M06/M11 A3026 RMK A01 T10631105  RH  072%=      5-min Rain = 0
KST4 140815Z 14008KT M06/M10 A3026 RMK A01 T10631104  RH  072%=      5-min Rain = 0
KST4 140816Z 14008KT M06/M11 A3026 RMK A01 T10631105  RH  072%=      5-min Rain = 0
KST4 140817Z 14008KT M06/M11 A3026 RMK A01 T10631105  RH  072%=      5-min Rain = 0
KST4 140818Z 15009KT M06/M11 A3026 RMK A01 T10631105  RH  072%=      5-min Rain = 0
KST4 140819Z 15009KT M06/M11 A3026 RMK A01 T10631105  RH  072%=      5-min Rain = 0
KST4 140820Z 15008KT M06/M11 A3026 RMK A01 T10631105  RH  072%=      5-min Rain = 0
KST4 140821Z 15007KT M06/M11 A3026 RMK A01 T10631105  RH  072%=      5-min Rain = 0
KST4 140822Z 15007KT M06/M11 A3026 RMK A01 T10631105  RH  073%=      5-min Rain = 0
KST4 140823Z 15007KT M06/M10 A3026 RMK A01 T10631104  RH  073%=      5-min Rain = 0
KST4 140824Z 15008KT M06/M10 A3026 RMK A01 T10631104  RH  073%=      5-min Rain = 0
KST4 140825Z 15007KT M06/M10 A3026 RMK A01 T10631104  RH  073%=      5-min Rain = 0
KST4 140826Z 15007KT M06/M10 A3026 RMK A01 T10631104  RH  073%=      5-min Rain = 0
KST4 140827Z 15008KT M06/M10 A3026 RMK A01 T10631104  RH  073%=      5-min Rain = 0
KST4 140828Z 16007KT M06/M10 A3026 RMK A01 T10631103  RH  073%=      5-min Rain = 0
KST4 140829Z 16009KT M06/M10 A3026 RMK A01 T10631103  RH  073%=      5-min Rain = 0
KST4 140830Z 16009KT M06/M10 A3026 RMK A01 T10631103  RH  073%=      5-min Rain = 0
KST4 140831Z 16009KT M06/M10 A3026 RMK A01 T10631103  RH  073%=      5-min Rain = 0
KST4 140832Z 16008KT M06/M10 A3026 RMK A01 T10631103  RH  073%=      5-min Rain = 0
KST4 140833Z 16008KT M06/M10 A3026 RMK A01 T10631103  RH  073%=      5-min Rain = 0
KST4 140834Z 15007KT M06/M10 A3026 RMK A01 T10631103  RH  074%=      5-min Rain = 0
KST4 140835Z 16008KT M06/M10 A3026 RMK A01 T10631102  RH  074%=      5-min Rain = 0
KST4 140836Z 16009KT M06/M10 A3026 RMK A01 T10631103  RH  074%=      5-min Rain = 0
KST4 140837Z 16009KT M06/M10 A3026 RMK A01 T10631103  RH  073%=      5-min Rain = 0
KST4 140838Z 16008KT M06/M10 A3026 RMK A01 T10631103  RH  073%=      5-min Rain = 0
KST4 140839Z 16008KT M06/M10 A3026 RMK A01 T10631103  RH  074%=      5-min Rain = 0
KST4 140840Z 15008KT M06/M10 A3026 RMK A01 T10631102  RH  074%=      5-min Rain = 0
KST4 140841Z 16007KT M06/M10 A3026 RMK A01 T10631102  RH  074%=      5-min Rain = 0
KST4 140842Z 17008KT M06/M10 A3026 RMK A01 T10631102  RH  074%=      5-min Rain = 0
KST4 140843Z 16009KT M06/M10 A3026 RMK A01 T10631102  RH  074%=      5-min Rain = 0
KST4 140844Z 15009KT M06/M10 A3026 RMK A01 T10631102  RH  074%=      5-min Rain = 0
KST4 140845Z 15010KT M06/M10 A3026 RMK A01 T10631102  RH  074%=      5-min Rain = 0
KST4 140846Z 15010KT M06/M10 A3026 RMK A01 T10631102  RH  074%=      5-min Rain = 0
KST4 140847Z 16010KT M06/M10 A3025 RMK A01 T10631102  RH  074%=      5-min Rain = 0
KST4 140848Z 16010KT M06/M10 A3025 RMK A01 T10631103  RH  074%=      5-min Rain = 0
KST4 140849Z 16008KT M06/M10 A3025 RMK A01 T10631103  RH  073%=      5-min Rain = 0
KST4 140850Z 15009KT M06/M10 A3025 RMK A01 T10631102  RH  074%=      5-min Rain = 0
KST4 140851Z 16008KT M06/M10 A3025 RMK A01 T10631102  RH  074%=      5-min Rain = 0
KST4 140852Z 16008KT M06/M10 A3025 RMK A01 T10631101  RH  074%=      5-min Rain = 0
KST4 140853Z 16008KT M06/M10 A3025 RMK A01 T10631102  RH  074%=      5-min Rain = 0
KST4 140854Z 16008KT M06/M10 A3025 RMK A01 T10631102  RH  074%=      5-min Rain = 0
KST4 140855Z 16008KT M06/M10 A3025 RMK A01 T10631102  RH  074%=      5-min Rain = 0
KST4 140856Z 16008KT M06/M10 A3025 RMK A01 T10631102  RH  074%=      5-min Rain = 0
KST4 140857Z 16009KT M06/M10 A3025 RMK A01 T10631101  RH  074%=      5-min Rain = 0
KST4 140858Z 16009KT M06/M10 A3025 RMK A01 T10621101  RH  074%=      5-min Rain = 0
KST4 140859Z 17008KT M06/M10 A3025 RMK A01 T10621101  RH  074%=      5-min Rain = 0
KST4 140900Z 17010KT M06/M10 A3025 RMK A01 T10621101  RH  074%=      5-min Rain = 0
KST4 140901Z 16010KT M06/M10 A3025 RMK A01 T10621102  RH  074%=      5-min Rain = 0
KST4 140902Z 17010KT M06/M10 A3025 RMK A01 T10621102  RH  073%=      5-min Rain = 0
KST4 140903Z 16011KT M06/M10 A3025 RMK A01 T10621102  RH  073%=      5-min Rain = 0
KST4 140904Z 16010KT M06/M10 A3025 RMK A01 T10621102  RH  073%=      5-min Rain = 0
KST4 140905Z 16010KT M06/M10 A3025 RMK A01 T10621102  RH  073%=      5-min Rain = 0
KST4 140906Z 16009KT M06/M10 A3025 RMK A01 T10621102  RH  073%=      5-min Rain = 0
KST4 140907Z 16010KT M06/M10 A3025 RMK A01 T10621102  RH  074%=      5-min Rain = 0
KST4 140908Z 16008KT M06/M10 A3025 RMK A01 T10621101  RH  074%=      5-min Rain = 0
KST4 140909Z 16009KT M06/M10 A3025 RMK A01 T10621101  RH  074%=      5-min Rain = 0
KST4 140910Z 16009KT M06/M10 A3025 RMK A01 T10621102  RH  074%=      5-min Rain = 0
KST4 140911Z 16010KT M06/M10 A3025 RMK A01 T10621102  RH  074%=      5-min Rain = 0
KST4 140912Z 15009KT M06/M10 A3025 RMK A01 T10621102  RH  074%=      5-min Rain = 0
KST4 140913Z 16009KT M06/M10 A3025 RMK A01 T10621101  RH  074%=      5-min Rain = 0
KST4 140914Z 16010KT M06/M10 A3025 RMK A01 T10621100  RH  074%=      5-min Rain = 0
KST4 140915Z 16010KT M06/M10 A3025 RMK A01 T10621101  RH  074%=      5-min Rain = 0
KST4 140916Z 17009KT M06/M10 A3025 RMK A01 T10621101  RH  074%=      5-min Rain = 0
KST4 140917Z 17009KT M06/M10 A3025 RMK A01 T10621101  RH  074%=      5-min Rain = 0
KST4 140918Z 17009KT M06/M10 A3025 RMK A01 T10621101  RH  074%=      5-min Rain = 0
KST4 140919Z 17008KT M06/M10 A3025 RMK A01 T10621101  RH  074%=      5-min Rain = 0
KST4 140920Z 15008KT M06/M10 A3025 RMK A01 T10621100  RH  074%=      5-min Rain = 0
KST4 140921Z 16008KT M06/M10 A3025 RMK A01 T10621100  RH  074%=      5-min Rain = 0
KST4 140922Z 16009KT M06/M10 A3025 RMK A01 T10621100  RH  074%=      5-min Rain = 0
KST4 140923Z 16009KT M06/M10 A3025 RMK A01 T10621100  RH  074%=      5-min Rain = 0
KST4 140924Z 16010KT M06/M10 A3025 RMK A01 T10621100  RH  074%=      5-min Rain = 0
KST4 140925Z 16011KT M06/M10 A3025 RMK A01 T10621100  RH  074%=      5-min Rain = 0
KST4 140926Z 16009KT M06/M10 A3025 RMK A01 T10621100  RH  074%=      5-min Rain = 0
KST4 140927Z 16010KT M06/M10 A3024 RMK A01 T10621100  RH  074%=      5-min Rain = 0
KST4 140928Z 15010KT M06/M10 A3024 RMK A01 T10621100  RH  074%=      5-min Rain = 0
KST4 140929Z 16010KT M06/M10 A3024 RMK A01 T10621100  RH  075%=      5-min Rain = 0
KST4 140930Z 16011KT M06/M10 A3024 RMK A01 T10621100  RH  075%=      5-min Rain = 0
KST4 140931Z 16009KT M06/M10 A3024 RMK A01 T10621100  RH  075%=      5-min Rain = 0
KST4 140932Z 16009KT M06/M10 A3024 RMK A01 T10621099  RH  075%=      5-min Rain = 0
KST4 140933Z 16009KT M06/M10 A3024 RMK A01 T10621100  RH  075%=      5-min Rain = 0
KST4 140934Z 16011KT M06/M10 A3024 RMK A01 T10621099  RH  075%=      5-min Rain = 0
KST4 140935Z 16011KT M06/M10 A3024 RMK A01 T10621099  RH  075%=      5-min Rain = 0
KST4 140936Z 16010KT M06/M10 A3024 RMK A01 T10621100  RH  075%=      5-min Rain = 0
KST4 140937Z 16010KT M06/M10 A3024 RMK A01 T10621100  RH  075%=      5-min Rain = 0
KST4 140938Z 17010KT M06/M10 A3024 RMK A01 T10621099  RH  075%=      5-min Rain = 0
KST4 140939Z 17010KT M06/M10 A3024 RMK A01 T10621099  RH  075%=      5-min Rain = 0
KST4 140940Z 17009KT M06/M10 A3024 RMK A01 T10621099  RH  075%=      5-min Rain = 0
KST4 140941Z 17008KT M06/M10 A3024 RMK A01 T10621099  RH  075%=      5-min Rain = 0
KST4 140942Z 17009KT M06/M10 A3024 RMK A01 T10611098  RH  075%=      5-min Rain = 0
KST4 140943Z 16009KT M06/M10 A3024 RMK A01 T10611098  RH  075%=      5-min Rain = 0
KST4 140944Z 16009KT M06/M10 A3024 RMK A01 T10611098  RH  075%=      5-min Rain = 0
KST4 140945Z 16009KT M06/M10 A3024 RMK A01 T10611097  RH  075%=      5-min Rain = 0
KST4 140946Z 16010KT M06/M10 A3024 RMK A01 T10611097  RH  075%=      5-min Rain = 0
KST4 140947Z 18010KT M06/M10 A3024 RMK A01 T10601097  RH  075%=      5-min Rain = 0
KST4 140948Z 17010KT M06/M10 A3024 RMK A01 T10601098  RH  075%=      5-min Rain = 0
KST4 140949Z 17011KT M06/M10 A3024 RMK A01 T10611098  RH  075%=      5-min Rain = 0
KST4 140950Z 17010KT M06/M10 A3024 RMK A01 T10601097  RH  075%=      5-min Rain = 0
KST4 140951Z 17009KT M06/M10 A3024 RMK A01 T10611097  RH  075%=      5-min Rain = 0
KST4 140952Z 17010KT M06/M10 A3024 RMK A01 T10611097  RH  075%=      5-min Rain = 0
KST4 140953Z 17011KT M06/M10 A3024 RMK A01 T10611098  RH  075%=      5-min Rain = 0
KST4 140954Z 17009KT M06/M10 A3024 RMK A01 T10601098  RH  075%=      5-min Rain = 0
KST4 140955Z 17008KT M06/M10 A3024 RMK A01 T10601097  RH  075%=      5-min Rain = 0
KST4 140956Z 17009KT M06/M10 A3024 RMK A01 T10601096  RH  075%=      5-min Rain = 0
KST4 140957Z 17009KT M06/M10 A3024 RMK A01 T10591096  RH  075%=      5-min Rain = 0
KST4 140958Z 17009KT M06/M10 A3024 RMK A01 T10591096  RH  075%=      5-min Rain = 0
KST4 140959Z 17008KT M06/M10 A3023 RMK A01 T10591097  RH  075%=      5-min Rain = 0
KST4 141000Z 17008KT M06/M10 A3023 RMK A01 T10591097  RH  075%=      5-min Rain = 0
KST4 141001Z 17010KT M06/M10 A3023 RMK A01 T10591096  RH  075%=      5-min Rain = 0
KST4 141002Z 17011KT M06/M10 A3023 RMK A01 T10591097  RH  074%=      5-min Rain = 0
KST4 141003Z 17010KT M06/M10 A3023 RMK A01 T10591097  RH  074%=      5-min Rain = 0
KST4 141004Z 17010KT M06/M10 A3023 RMK A01 T10591097  RH  074%=      5-min Rain = 0
KST4 141005Z 17009KT M06/M10 A3023 RMK A01 T10591097  RH  074%=      5-min Rain = 0
KST4 141006Z 17011KT M06/M10 A3023 RMK A01 T10591097  RH  074%=      5-min Rain = 0
KST4 141007Z 17012KT M06/M10 A3023 RMK A01 T10591097  RH  074%=      5-min Rain = 0
KST4 141008Z 17011KT M06/M10 A3023 RMK A01 T10591097  RH  074%=      5-min Rain = 0
KST4 141009Z 17011KT M06/M10 A3023 RMK A01 T10591096  RH  075%=      5-min Rain = 0
KST4 141010Z 17012KT M06/M10 A3023 RMK A01 T10591096  RH  075%=      5-min Rain = 0
KST4 141011Z 18012KT M06/M10 A3023 RMK A01 T10591096  RH  075%=      5-min Rain = 0
KST4 141012Z 18012KT M06/M10 A3023 RMK A01 T10581096  RH  075%=      5-min Rain = 0
KST4 141013Z 18009KT M06/M10 A3023 RMK A01 T10581095  RH  075%=      5-min Rain = 0
KST4 141014Z 17009KT M06/M10 A3023 RMK A01 T10581095  RH  075%=      5-min Rain = 0
KST4 141015Z 17011KT M06/M10 A3023 RMK A01 T10581095  RH  075%=      5-min Rain = 0
KST4 141016Z 17011KT M06/M10 A3023 RMK A01 T10581095  RH  075%=      5-min Rain = 0
KST4 141017Z 18011KT M06/M10 A3023 RMK A01 T10581095  RH  075%=      5-min Rain = 0
KST4 141018Z 18011KT M06/M10 A3023 RMK A01 T10581095  RH  075%=      5-min Rain = 0
KST4 141019Z 18010KT M06/M10 A3023 RMK A01 T10581095  RH  075%=      5-min Rain = 0
KST4 141020Z 18010KT M06/M10 A3023 RMK A01 T10581095  RH  075%=      5-min Rain = 0
KST4 141021Z 18011KT M06/M10 A3023 RMK A01 T10581095  RH  075%=      5-min Rain = 0
KST4 141022Z 18011KT M06/M10 A3023 RMK A01 T10581095  RH  075%=      5-min Rain = 0
KST4 141023Z 18012KT M06/M09 A3023 RMK A01 T10581094  RH  075%=      5-min Rain = 0
KST4 141024Z 19012KT M06/M09 A3023 RMK A01 T10581094  RH  076%=      5-min Rain = 0
KST4 141025Z 18011KT M06/M09 A3023 RMK A01 T10581093  RH  076%=      5-min Rain = 0
KST4 141026Z 18009KT M06/M09 A3023 RMK A01 T10581093  RH  076%=      5-min Rain = 0
KST4 141027Z 18011KT M06/M09 A3023 RMK A01 T10581093  RH  076%=      5-min Rain = 0
KST4 141028Z 18011KT M06/M09 A3023 RMK A01 T10581093  RH  076%=      5-min Rain = 0
KST4 141029Z 18011KT M06/M09 A3023 RMK A01 T10581093  RH  076%=      5-min Rain = 0
KST4 141030Z 18011KT M06/M09 A3022 RMK A01 T10581093  RH  076%=      5-min Rain = 0
KST4 141031Z 18009KT M06/M09 A3022 RMK A01 T10581093  RH  076%=      5-min Rain = 0
KST4 141032Z 18010KT M06/M09 A3022 RMK A01 T10571092  RH  076%=      5-min Rain = 0
KST4 141033Z 19010KT M06/M09 A3022 RMK A01 T10571092  RH  076%=      5-min Rain = 0
KST4 141034Z 18012KT M06/M09 A3022 RMK A01 T10571092  RH  077%=      5-min Rain = 0
KST4 141035Z 18010KT M06/M09 A3022 RMK A01 T10571091  RH  077%=      5-min Rain = 0
KST4 141036Z 18011KT M06/M09 A3022 RMK A01 T10571092  RH  077%=      5-min Rain = 0
KST4 141037Z 18011KT M06/M09 A3022 RMK A01 T10571091  RH  077%=      5-min Rain = 0
KST4 141038Z 18010KT M06/M09 A3022 RMK A01 T10571091  RH  077%=      5-min Rain = 0
KST4 141039Z 18012KT M06/M09 A3022 RMK A01 T10571090  RH  077%=      5-min Rain = 0
KST4 141040Z 18012KT M06/M09 A3022 RMK A01 T10571090  RH  077%=      5-min Rain = 0
KST4 141041Z 18012KT M06/M09 A3022 RMK A01 T10571090  RH  078%=      5-min Rain = 0
KST4 141042Z 18013KT M06/M09 A3022 RMK A01 T10571090  RH  077%=      5-min Rain = 0
KST4 141043Z 18012KT M06/M09 A3022 RMK A01 T10561090  RH  077%=      5-min Rain = 0
KST4 141044Z 18012KT M06/M09 A3022 RMK A01 T10561090  RH  077%=      5-min Rain = 0
KST4 141045Z 19013KT M06/M09 A3022 RMK A01 T10561090  RH  077%=      5-min Rain = 0
KST4 141046Z 19015KT M06/M09 A3022 RMK A01 T10561090  RH  077%=      5-min Rain = 0
KST4 141047Z 19015KT M06/M09 A3022 RMK A01 T10561089  RH  077%=      5-min Rain = 0
KST4 141048Z 19014KT M06/M09 A3022 RMK A01 T10561088  RH  078%=      5-min Rain = 0
KST4 141049Z 19015KT M06/M09 A3022 RMK A01 T10551088  RH  078%=      5-min Rain = 0
KST4 141050Z 18014KT M06/M09 A3022 RMK A01 T10561088  RH  078%=      5-min Rain = 0
KST4 141051Z 19012KT M06/M09 A3022 RMK A01 T10551088  RH  078%=      5-min Rain = 0
KST4 141052Z 19011KT M06/M09 A3022 RMK A01 T10551088  RH  078%=      5-min Rain = 0
KST4 141053Z 19011KT M06/M09 A3022 RMK A01 T10551088  RH  078%=      5-min Rain = 0
KST4 141054Z 20013KT M06/M09 A3022 RMK A01 T10551088  RH  078%=      5-min Rain = 0
KST4 141055Z 19013KT M06/M09 A3022 RMK A01 T10551087  RH  078%=      5-min Rain = 0
KST4 141056Z 20013KT M06/M09 A3022 RMK A01 T10551087  RH  078%=      5-min Rain = 0
KST4 141057Z 20013KT M06/M09 A3022 RMK A01 T10551087  RH  078%=      5-min Rain = 0
KST4 141058Z 19012KT M06/M09 A3022 RMK A01 T10551087  RH  078%=      5-min Rain = 0
KST4 141059Z 19010KT M05/M09 A3022 RMK A01 T10541087  RH  078%=      5-min Rain = 0
KST4 141100Z 20011KT M05/M09 A3022 RMK A01 T10541087  RH  078%=      5-min Rain = 0
KST4 141101Z 19011KT M05/M09 A3022 RMK A01 T10541085  RH  079%=      5-min Rain = 0
KST4 141102Z 19012KT M05/M09 A3022 RMK A01 T10541085  RH  079%=      5-min Rain = 0
KST4 141103Z 19014KT M05/M08 A3022 RMK A01 T10541084  RH  080%=      5-min Rain = 0
KST4 141104Z 19014KT M05/M08 A3022 RMK A01 T10541083  RH  080%=      5-min Rain = 0
KST4 141105Z 19014KT M05/M08 A3022 RMK A01 T10541082  RH  081%=      5-min Rain = 0
KST4 141106Z 19013KT M06/M08 A3022 RMK A01 T10551082  RH  081%=      5-min Rain = 0
KST4 141107Z 19011KT M06/M08 A3022 RMK A01 T10551081  RH  082%=      5-min Rain = 0
KST4 141108Z 19011KT M06/M08 A3022 RMK A01 T10551081  RH  082%=      5-min Rain = 0
KST4 141109Z 19012KT M06/M08 A3022 RMK A01 T10551081  RH  082%=      5-min Rain = 0
KST4 141110Z 19013KT M06/M08 A3022 RMK A01 T10551081  RH  082%=      5-min Rain = 0
KST4 141111Z 19014KT M06/M08 A3022 RMK A01 T10551081  RH  082%=      5-min Rain = 0
KST4 141112Z 19015KT M06/M08 A3022 RMK A01 T10551080  RH  082%=      5-min Rain = 0
KST4 141113Z 19013KT M06/M08 A3021 RMK A01 T10551079  RH  083%=      5-min Rain = 0
KST4 141114Z 19014KT M06/M08 A3021 RMK A01 T10551078  RH  084%=      5-min Rain = 0
KST4 141115Z 19015KT M06/M08 A3021 RMK A01 T10551077  RH  084%=      5-min Rain = 0
KST4 141116Z 19015KT M06/M08 A3021 RMK A01 T10551076  RH  085%=      5-min Rain = 0
KST4 141117Z 19014KT M06/M08 A3021 RMK A01 T10561076  RH  086%=      5-min Rain = 0
KST4 141118Z 19014KT M06/M08 A3021 RMK A01 T10561075  RH  086%=      5-min Rain = 0
KST4 141119Z 20015KT M06/M08 A3021 RMK A01 T10561075  RH  087%=      5-min Rain = 0
KST4 141120Z 19013KT M06/M07 A3021 RMK A01 T10561074  RH  087%=      5-min Rain = 0
KST4 141121Z 19015KT M06/M07 A3021 RMK A01 T10561073  RH  088%=      5-min Rain = 0
KST4 141122Z 20014KT M06/M07 A3021 RMK A01 T10571073  RH  088%=      5-min Rain = 0
KST4 141123Z 19012KT M06/M07 A3021 RMK A01 T10561072  RH  088%=      5-min Rain = 0
KST4 141124Z 20013KT M06/M07 A3021 RMK A01 T10561072  RH  089%=      5-min Rain = 0
KST4 141125Z 19014KT M06/M07 A3021 RMK A01 T10561072  RH  089%=      5-min Rain = 0
KST4 141126Z 20015KT M06/M07 A3021 RMK A01 T10561072  RH  089%=      5-min Rain = 0
KST4 141127Z 19013KT M06/M07 A3021 RMK A01 T10571072  RH  089%=      5-min Rain = 0
KST4 141128Z 19013KT M06/M07 A3021 RMK A01 T10561071  RH  089%=      5-min Rain = 0
KST4 141129Z 19015KT M06/M07 A3021 RMK A01 T10561071  RH  089%=      5-min Rain = 0
KST4 141130Z 19013KT M06/M07 A3021 RMK A01 T10571072  RH  089%=      5-min Rain = 0
KST4 141131Z 19012KT M06/M07 A3021 RMK A01 T10571072  RH  089%=      5-min Rain = 0
KST4 141132Z 19013KT M06/M07 A3021 RMK A01 T10571071  RH  090%=      5-min Rain = 0
KST4 141133Z 20013KT M06/M07 A3021 RMK A01 T10571071  RH  090%=      5-min Rain = 0
KST4 141134Z 20011KT M06/M07 A3021 RMK A01 T10571071  RH  090%=      5-min Rain = 0
KST4 141135Z 20012KT M06/M07 A3021 RMK A01 T10571070  RH  090%=      5-min Rain = 0
KST4 141136Z 20012KT M06/M07 A3021 RMK A01 T10571070  RH  090%=      5-min Rain = 0
KST4 141137Z 19012KT M06/M07 A3021 RMK A01 T10571071  RH  090%=      5-min Rain = 0
KST4 141138Z 19013KT M06/M07 A3021 RMK A01 T10571071  RH  090%=      5-min Rain = 0
KST4 141139Z 19013KT M06/M07 A302 RMK A01 T10571071  RH  090%=      5-min Rain = 0
KST4 141140Z 19012KT M06/M07 A302 RMK A01 T10571071  RH  090%=      5-min Rain = 0
KST4 141141Z 19012KT M06/M07 A302 RMK A01 T10571071  RH  090%=      5-min Rain = 0
KST4 141142Z 20012KT M06/M07 A302 RMK A01 T10571071  RH  090%=      5-min Rain = 0
KST4 141143Z 20012KT M06/M07 A302 RMK A01 T10571071  RH  090%=      5-min Rain = 0
KST4 141144Z 19012KT M06/M07 A302 RMK A01 T10571071  RH  090%=      5-min Rain = 0
KST4 141145Z 19011KT M06/M07 A302 RMK A01 T10571071  RH  090%=      5-min Rain = 0
KST4 141146Z 19011KT M06/M07 A302 RMK A01 T10571071  RH  090%=      5-min Rain = 0
KST4 141147Z 19011KT M06/M07 A302 RMK A01 T10571071  RH  090%=      5-min Rain = 0
KST4 141148Z 19012KT M06/M07 A302 RMK A01 T10571071  RH  090%=      5-min Rain = 0
KST4 141149Z 19011KT M06/M07 A302 RMK A01 T10571071  RH  090%=      5-min Rain = 0
KST4 141150Z 19011KT M06/M07 A302 RMK A01 T10571071  RH  090%=      5-min Rain = 0
KST4 141151Z 19012KT M06/M07 A302 RMK A01 T10571071  RH  090%=      5-min Rain = 0
KST4 141152Z 19015KT M06/M07 A302 RMK A01 T10571071  RH  090%=      5-min Rain = 0
KST4 141153Z 19014KT M06/M07 A302 RMK A01 T10571071  RH  090%=      5-min Rain = 0
KST4 141154Z 20015KT M06/M07 A302 RMK A01 T10571071  RH  090%=      5-min Rain = 0
KST4 141155Z 20013KT M06/M07 A302 RMK A01 T10571071  RH  090%=      5-min Rain = 0
KST4 141156Z 20014KT M06/M07 A302 RMK A01 T10571071  RH  090%=      5-min Rain = 0
KST4 141157Z 20013KT M06/M07 A302 RMK A01 T10571071  RH  090%=      5-min Rain = 0
KST4 141158Z 21013KT M06/M07 A302 RMK A01 T10571070  RH  090%=      5-min Rain = 0
KST4 141159Z 20013KT M06/M07 A302 RMK A01 T10571070  RH  091%=      5-min Rain = 0
KST4 141200Z 20013KT M06/M07 A302 RMK A01 T10571070  RH  091%=      5-min Rain = 0
KST4 141201Z 20011KT M06/M07 A302 RMK A01 T10571070  RH  091%=      5-min Rain = 0
KST4 141202Z 20012KT M06/M07 A302 RMK A01 T10571070  RH  091%=      5-min Rain = 0
KST4 141203Z 20014KT M06/M07 A302 RMK A01 T10571070  RH  091%=      5-min Rain = 0
KST4 141204Z 20012KT M06/M07 A302 RMK A01 T10571070  RH  091%=      5-min Rain = 0
KST4 141205Z 20012KT M06/M07 A302 RMK A01 T10571069  RH  091%=      5-min Rain = 0
KST4 141206Z 20012KT M06/M07 A302 RMK A01 T10571070  RH  091%=      5-min Rain = 0
KST4 141207Z 20011KT M06/M07 A302 RMK A01 T10571069  RH  091%=      5-min Rain = 0
KST4 141208Z 20012KT M06/M07 A302 RMK A01 T10571069  RH  091%=      5-min Rain = 0
KST4 141209Z 19012KT M06/M07 A302 RMK A01 T10571070  RH  091%=      5-min Rain = 0
KST4 141210Z 20013KT M06/M07 A302 RMK A01 T10571070  RH  091%=      5-min Rain = 0
KST4 141211Z 19012KT M06/M07 A302 RMK A01 T10571070  RH  091%=      5-min Rain = 0
KST4 141212Z 20012KT M06/M07 A302 RMK A01 T10571070  RH  091%=      5-min Rain = 0
KST4 141213Z 19013KT M06/M07 A302 RMK A01 T10581070  RH  091%=      5-min Rain = 0
KST4 141214Z 20013KT M06/M07 A302 RMK A01 T10571070  RH  091%=      5-min Rain = 0
KST4 141215Z 20014KT M06/M07 A302 RMK A01 T10571070  RH  091%=      5-min Rain = 0
KST4 141216Z 20015KT M06/M07 A302 RMK A01 T10571070  RH  091%=      5-min Rain = 0
KST4 141217Z 19014KT M06/M07 A302 RMK A01 T10571070  RH  091%=      5-min Rain = 0
KST4 141218Z 20013KT M06/M07 A302 RMK A01 T10571070  RH  091%=      5-min Rain = 0
KST4 141219Z 20013KT M06/M07 A302 RMK A01 T10571070  RH  091%=      5-min Rain = 0
KST4 141220Z 20012KT M06/M07 A302 RMK A01 T10571070  RH  091%=      5-min Rain = 0
KST4 141221Z 20012KT M06/M07 A302 RMK A01 T10571070  RH  091%=      5-min Rain = 0
KST4 141222Z 20013KT M06/M07 A302 RMK A01 T10571070  RH  091%=      5-min Rain = 0
KST4 141223Z 20013KT M06/M07 A302 RMK A01 T10571070  RH  091%=      5-min Rain = 0
KST4 141224Z 19014KT M06/M07 A302 RMK A01 T10571070  RH  091%=      5-min Rain = 0
KST4 141225Z 20012KT M06/M07 A302 RMK A01 T10571070  RH  091%=      5-min Rain = 0
KST4 141226Z 20012KT M06/M07 A302 RMK A01 T10571070  RH  091%=      5-min Rain = 0
KST4 141227Z 20014KT M06/M07 A302 RMK A01 T10571070  RH  091%=      5-min Rain = 0
KST4 141228Z 20012KT M06/M07 A302 RMK A01 T10571070  RH  091%=      5-min Rain = 0
KST4 141229Z 19013KT M06/M07 A302 RMK A01 T10571070  RH  091%=      5-min Rain = 0
KST4 141230Z 20013KT M06/M07 A302 RMK A01 T10571069  RH  091%=      5-min Rain = 0
KST4 141231Z 20012KT M06/M07 A302 RMK A01 T10571070  RH  091%=      5-min Rain = 0
KST4 141232Z 20011KT M06/M07 A302 RMK A01 T10571069  RH  091%=      5-min Rain = 0
KST4 141233Z 19013KT M06/M07 A302 RMK A01 T10571069  RH  091%=      5-min Rain = 0
KST4 141234Z 20013KT M06/M07 A302 RMK A01 T10571069  RH  091%=      5-min Rain = 0
KST4 141235Z 20013KT M06/M07 A302 RMK A01 T10571069  RH  091%=      5-min Rain = 0
KST4 141236Z 20011KT M06/M07 A302 RMK A01 T10571069  RH  091%=      5-min Rain = 0
KST4 141237Z 20013KT M06/M07 A302 RMK A01 T10561068  RH  091%=      5-min Rain = 0
KST4 141238Z 20015KT M06/M07 A302 RMK A01 T10561069  RH  091%=      5-min Rain = 0
KST4 141239Z 20013KT M06/M07 A302 RMK A01 T10561069  RH  091%=      5-min Rain = 0
KST4 141240Z 19014KT M06/M07 A302 RMK A01 T10561069  RH  091%=      5-min Rain = 0
KST4 141241Z 19014KT M06/M07 A302 RMK A01 T10561069  RH  091%=      5-min Rain = 0
KST4 141242Z 19014KT M06/M07 A302 RMK A01 T10561068  RH  091%=      5-min Rain = 0
KST4 141243Z 19012KT M06/M07 A302 RMK A01 T10561068  RH  091%=      5-min Rain = 0
KST4 141244Z 19012KT M06/M07 A302 RMK A01 T10561068  RH  091%=      5-min Rain = 0
KST4 141245Z 19012KT M06/M07 A302 RMK A01 T10561068  RH  091%=      5-min Rain = 0
KST4 141246Z 19011KT M06/M07 A302 RMK A01 T10561069  RH  091%=      5-min Rain = 0
KST4 141247Z 19012KT M06/M07 A302 RMK A01 T10561069  RH  091%=      5-min Rain = 0
KST4 141248Z 19013KT M06/M07 A302 RMK A01 T10561069  RH  091%=      5-min Rain = 0
KST4 141249Z 19012KT M06/M07 A302 RMK A01 T10561069  RH  091%=      5-min Rain = 0
KST4 141250Z 19012KT M06/M07 A302 RMK A01 T10561069  RH  091%=      5-min Rain = 0
KST4 141251Z 19011KT M06/M07 A302 RMK A01 T10561069  RH  091%=      5-min Rain = 0
KST4 141252Z 19011KT M06/M07 A302 RMK A01 T10561069  RH  091%=      5-min Rain = 0
KST4 141253Z 19012KT M06/M07 A302 RMK A01 T10561069  RH  090%=      5-min Rain = 0
KST4 141254Z 19013KT M06/M07 A302 RMK A01 T10561069  RH  090%=      5-min Rain = 0
KST4 141255Z 19012KT M06/M07 A302 RMK A01 T10561069  RH  090%=      5-min Rain = 0
KST4 141256Z 19012KT M06/M07 A302 RMK A01 T10561069  RH  090%=      5-min Rain = 0
KST4 141257Z 19012KT M06/M07 A302 RMK A01 T10551069  RH  090%=      5-min Rain = 0
KST4 141258Z 19012KT M06/M07 A302 RMK A01 T10561069  RH  090%=      5-min Rain = 0
KST4 141259Z 19011KT M06/M07 A302 RMK A01 T10551069  RH  090%=      5-min Rain = 0
KST4 141300Z 19011KT M06/M07 A302 RMK A01 T10561069  RH  091%=      5-min Rain = 0
KST4 141301Z 19011KT M06/M07 A3019 RMK A01 T10551068  RH  091%=      5-min Rain = 0
KST4 141302Z 19011KT M06/M07 A3019 RMK A01 T10551068  RH  091%=      5-min Rain = 0
KST4 141303Z 19013KT M06/M07 A3019 RMK A01 T10551068  RH  091%=      5-min Rain = 0
KST4 141304Z 19012KT M06/M07 A3019 RMK A01 T10551068  RH  091%=      5-min Rain = 0
KST4 141305Z 19011KT M06/M07 A3019 RMK A01 T10551068  RH  091%=      5-min Rain = 0
KST4 141306Z 19013KT M06/M07 A3019 RMK A01 T10551068  RH  091%=      5-min Rain = 0
KST4 141307Z 19012KT M06/M07 A3019 RMK A01 T10551068  RH  091%=      5-min Rain = 0
KST4 141308Z 19014KT M06/M07 A3019 RMK A01 T10551067  RH  091%=      5-min Rain = 0
KST4 141309Z 19013KT M06/M07 A3019 RMK A01 T10551067  RH  091%=      5-min Rain = 0
KST4 141310Z 19012KT M06/M07 A3019 RMK A01 T10551067  RH  092%=      5-min Rain = 0
KST4 141311Z 19011KT M06/M07 A3019 RMK A01 T10551066  RH  092%=      5-min Rain = 0
KST4 141312Z 19013KT M05/M07 A3019 RMK A01 T10541065  RH  092%=      5-min Rain = 0
KST4 141313Z 19012KT M06/M07 A3019 RMK A01 T10551065  RH  092%=      5-min Rain = 0
KST4 141314Z 19013KT M05/M07 A3019 RMK A01 T10541065  RH  092%=      5-min Rain = 0
KST4 141315Z 19012KT M06/M07 A3019 RMK A01 T10551065  RH  092%=      5-min Rain = 0
KST4 141316Z 19011KT M06/M07 A3019 RMK A01 T10551065  RH  093%=      5-min Rain = 0
KST4 141317Z 20010KT M05/M06 A3019 RMK A01 T10541064  RH  093%=      5-min Rain = 0
KST4 141318Z 20012KT M05/M06 A3019 RMK A01 T10541064  RH  093%=      5-min Rain = 0
KST4 141319Z 19011KT M05/M06 A3019 RMK A01 T10541064  RH  093%=      5-min Rain = 0
KST4 141320Z 19012KT M05/M06 A3019 RMK A01 T10541064  RH  093%=      5-min Rain = 0
KST4 141321Z 19013KT M05/M06 A3019 RMK A01 T10541064  RH  093%=      5-min Rain = 0
KST4 141322Z 19009KT M05/M06 A3019 RMK A01 T10541064  RH  093%=      5-min Rain = 0
KST4 141323Z 20009KT M05/M06 A3019 RMK A01 T10541063  RH  093%=      5-min Rain = 0
KST4 141324Z 20010KT M05/M06 A3019 RMK A01 T10531063  RH  093%=      5-min Rain = 0
KST4 141325Z 20011KT M05/M06 A3019 RMK A01 T10541063  RH  093%=      5-min Rain = 0
KST4 141326Z 20011KT M05/M06 A3019 RMK A01 T10531062  RH  094%=      5-min Rain = 0
KST4 141327Z 20011KT M05/M06 A302 RMK A01 T10531062  RH  094%=      5-min Rain = 0
KST4 141328Z 20012KT M05/M06 A302 RMK A01 T10521061  RH  094%=      5-min Rain = 0
KST4 141329Z 20013KT M05/M06 A302 RMK A01 T10521060  RH  094%=      5-min Rain = 0
KST4 141330Z 20011KT M05/M06 A3019 RMK A01 T10521060  RH  094%=      5-min Rain = 0
KST4 141331Z 21011KT M05/M06 A3019 RMK A01 T10521060  RH  094%=      5-min Rain = 0
KST4 141332Z 20012KT M05/M06 A3019 RMK A01 T10511059  RH  094%=      5-min Rain = 0
KST4 141333Z 20015KT M05/M06 A3019 RMK A01 T10511059  RH  094%=      5-min Rain = 0
KST4 141334Z 20013KT M05/M06 A3019 RMK A01 T10511059  RH  094%=      5-min Rain = 0
KST4 141335Z 20013KT M05/M06 A3019 RMK A01 T10511059  RH  094%=      5-min Rain = 0
KST4 141336Z 20013KT M05/M06 A3019 RMK A01 T10511058  RH  094%=      5-min Rain = 0
KST4 141337Z 20014KT M05/M06 A3019 RMK A01 T10511058  RH  094%=      5-min Rain = 0
KST4 141338Z 20014KT M05/M06 A3019 RMK A01 T10511058  RH  094%=      5-min Rain = 0
KST4 141339Z 20014KT M05/M06 A3019 RMK A01 T10501058  RH  095%=      5-min Rain = 0
KST4 141340Z 20013KT M05/M06 A3019 RMK A01 T10511058  RH  095%=      5-min Rain = 0
KST4 141341Z 20012KT M05/M06 A3019 RMK A01 T10501058  RH  095%=      5-min Rain = 0
KST4 141342Z 20014KT M05/M06 A3019 RMK A01 T10501057  RH  095%=      5-min Rain = 0
KST4 141343Z 20013KT M05/M06 A3019 RMK A01 T10501057  RH  095%=      5-min Rain = 0
KST4 141344Z 20014KT M05/M06 A3019 RMK A01 T10501057  RH  095%=      5-min Rain = 0
KST4 141345Z 20012KT M05/M06 A3019 RMK A01 T10491057  RH  095%=      5-min Rain = 0
KST4 141346Z 20011KT M05/M06 A3019 RMK A01 T10501057  RH  095%=      5-min Rain = 0
KST4 141347Z 20012KT M05/M06 A3019 RMK A01 T10491056  RH  095%=      5-min Rain = 0
KST4 141348Z 20011KT M05/M06 A3019 RMK A01 T10491056  RH  095%=      5-min Rain = 0
KST4 141349Z 20011KT M05/M06 A3019 RMK A01 T10491056  RH  095%=      5-min Rain = 0
KST4 141350Z 20012KT M05/M06 A3019 RMK A01 T10491056  RH  095%=      5-min Rain = 0
KST4 141351Z 20013KT M05/M06 A3019 RMK A01 T10491056  RH  095%=      5-min Rain = 0
KST4 141352Z 20012KT M05/M06 A3019 RMK A01 T10491056  RH  095%=      5-min Rain = 0
KST4 141353Z 20013KT M05/M06 A3019 RMK A01 T10481055  RH  095%=      5-min Rain = 0
KST4 141354Z 20011KT M05/M06 A3019 RMK A01 T10481055  RH  095%=      5-min Rain = 0
KST4 141355Z 20011KT M05/M06 A3019 RMK A01 T10481055  RH  095%=      5-min Rain = 0
KST4 141356Z 19012KT M05/M06 A3019 RMK A01 T10481055  RH  095%=      5-min Rain = 0
KST4 141357Z 20012KT M05/M06 A3019 RMK A01 T10481055  RH  095%=      5-min Rain = 0
KST4 141358Z 20014KT M05/M06 A3019 RMK A01 T10481055  RH  095%=      5-min Rain = 0
KST4 141359Z 20012KT M05/M06 A3019 RMK A01 T10481055  RH  095%=      5-min Rain = 0
KST4 141400Z 20013KT M05/M06 A3019 RMK A01 T10481055  RH  095%=      5-min Rain = 0
KST4 141401Z 20013KT M05/M06 A3019 RMK A01 T10481055  RH  095%=      5-min Rain = 0
KST4 141402Z 20015KT M05/M06 A3019 RMK A01 T10481055  RH  095%=      5-min Rain = 0
KST4 141403Z 20014KT M05/M06 A3019 RMK A01 T10481055  RH  095%=      5-min Rain = 0
KST4 141404Z 20013KT M05/M06 A3019 RMK A01 T10481055  RH  095%=      5-min Rain = 0
KST4 141405Z 20014KT M05/M06 A3019 RMK A01 T10481055  RH  095%=      5-min Rain = 0
KST4 141406Z 20012KT M05/M05 A3019 RMK A01 T10471054  RH  095%=      5-min Rain = 0
KST4 141407Z 20013KT M05/M06 A3019 RMK A01 T10481055  RH  095%=      5-min Rain = 0
KST4 141408Z 20015KT M05/M05 A3019 RMK A01 T10471054  RH  095%=      5-min Rain = 0
KST4 141409Z 20013KT M05/M05 A3019 RMK A01 T10471054  RH  095%=      5-min Rain = 0
KST4 141410Z 20013KT M05/M05 A3019 RMK A01 T10471054  RH  095%=      5-min Rain = 0
KST4 141411Z 20015KT M05/M05 A3019 RMK A01 T10471054  RH  095%=      5-min Rain = 0
KST4 141412Z 20013KT M05/M05 A3019 RMK A01 T10471054  RH  095%=      5-min Rain = 0
KST4 141413Z 20013KT M05/M05 A3019 RMK A01 T10471054  RH  095%=      5-min Rain = 0
KST4 141414Z 20013KT M05/M05 A3019 RMK A01 T10471054  RH  095%=      5-min Rain = 0
KST4 141415Z 20015KT M05/M05 A3019 RMK A01 T10461053  RH  095%=      5-min Rain = 0
KST4 141416Z 20014KT M05/M05 A3019 RMK A01 T10461053  RH  095%=      5-min Rain = 0
KST4 141417Z 20015KT M05/M05 A3019 RMK A01 T10461053  RH  095%=      5-min Rain = 0
KST4 141418Z 20014KT M05/M05 A3019 RMK A01 T10461053  RH  095%=      5-min Rain = 0
KST4 141419Z 20013KT M05/M05 A3019 RMK A01 T10461053  RH  095%=      5-min Rain = 0
KST4 141420Z 20014KT M05/M05 A3019 RMK A01 T10461053  RH  095%=      5-min Rain = 0
KST4 141421Z 20014KT M05/M05 A3019 RMK A01 T10461053  RH  095%=      5-min Rain = 0
KST4 141422Z 20015KT M05/M05 A3019 RMK A01 T10461053  RH  095%=      5-min Rain = 0
KST4 141423Z 20015KT M05/M05 A3019 RMK A01 T10461053  RH  095%=      5-min Rain = 0
KST4 141424Z 20013KT M05/M05 A3019 RMK A01 T10451052  RH  095%=      5-min Rain = 0
KST4 141425Z 20013KT M05/M05 A3019 RMK A01 T10451052  RH  095%=      5-min Rain = 0
KST4 141426Z 20012KT M05/M05 A3019 RMK A01 T10451052  RH  095%=      5-min Rain = 0
KST4 141427Z 20014KT M05/M05 A3019 RMK A01 T10451052  RH  095%=      5-min Rain = 0
KST4 141428Z 20013KT M04/M05 A3019 RMK A01 T10441051  RH  095%=      5-min Rain = 0
KST4 141429Z 20015KT M04/M05 A3019 RMK A01 T10441051  RH  095%=      5-min Rain = 0
KST4 141430Z 20013KT M05/M05 A3019 RMK A01 T10451051  RH  095%=      5-min Rain = 0
KST4 141431Z 20012KT M04/M05 A3019 RMK A01 T10441051  RH  095%=      5-min Rain = 0
KST4 141432Z 20014KT M04/M05 A3019 RMK A01 T10441051  RH  095%=      5-min Rain = 0
KST4 141433Z 20013KT M04/M05 A3019 RMK A01 T10441051  RH  095%=      5-min Rain = 0
KST4 141434Z 20012KT M04/M05 A3019 RMK A01 T10441051  RH  095%=      5-min Rain = 0
KST4 141435Z 20010KT M04/M05 A3019 RMK A01 T10431050  RH  095%=      5-min Rain = 0
KST4 141436Z 20014KT M04/M05 A3019 RMK A01 T10421049  RH  095%=      5-min Rain = 0
KST4 141437Z 20012KT M04/M05 A3019 RMK A01 T10421049  RH  095%=      5-min Rain = 0
KST4 141438Z 20013KT M04/M05 A3019 RMK A01 T10421049  RH  095%=      5-min Rain = 0
KST4 141439Z 20015KT M04/M05 A3019 RMK A01 T10421049  RH  095%=      5-min Rain = 0
KST4 141440Z 20014KT M04/M05 A3019 RMK A01 T10421049  RH  095%=      5-min Rain = 0
KST4 141441Z 19014KT M04/M05 A3019 RMK A01 T10421049  RH  095%=      5-min Rain = 0
KST4 141442Z 20015KT M04/M05 A3019 RMK A01 T10421049  RH  095%=      5-min Rain = 0
KST4 141443Z 20015KT M04/M05 A3019 RMK A01 T10421049  RH  095%=      5-min Rain = 0
KST4 141444Z 19015KT M04/M05 A3019 RMK A01 T10421049  RH  095%=      5-min Rain = 0
KST4 141445Z 20017KT M04/M05 A3019 RMK A01 T10421049  RH  095%=      5-min Rain = 0
KST4 141446Z 19016KT M04/M05 A3019 RMK A01 T10421049  RH  095%=      5-min Rain = 0
KST4 141447Z 19015KT M04/M05 A3019 RMK A01 T10421049  RH  095%=      5-min Rain = 0
KST4 141448Z 20014KT M04/M05 A3019 RMK A01 T10421049  RH  095%=      5-min Rain = 0
KST4 141449Z 19015KT M04/M05 A3019 RMK A01 T10411048  RH  095%=      5-min Rain = 0
KST4 141450Z 19014KT M04/M05 A3019 RMK A01 T10411048  RH  095%=      5-min Rain = 0
KST4 141451Z 19015KT M04/M05 A3019 RMK A01 T10411048  RH  095%=      5-min Rain = 0
KST4 141452Z 20014KT M04/M05 A3019 RMK A01 T10401048  RH  095%=      5-min Rain = 0
KST4 141453Z 20013KT M04/M05 A3019 RMK A01 T10401047  RH  095%=      5-min Rain = 0
KST4 141454Z 20017KT M04/M05 A3019 RMK A01 T10401047  RH  095%=      5-min Rain = 0
KST4 141455Z 20016KT M04/M05 A3019 RMK A01 T10401047  RH  095%=      5-min Rain = 0
KST4 141456Z 20015KT M04/M05 A3019 RMK A01 T10401048  RH  095%=      5-min Rain = 0
KST4 141457Z 20015KT M04/M05 A3019 RMK A01 T10401047  RH  095%=      5-min Rain = 0
KST4 141458Z 20014KT M04/M05 A3019 RMK A01 T10401047  RH  095%=      5-min Rain = 0
KST4 141459Z 20015KT M04/M05 A3019 RMK A01 T10391047  RH  095%=      5-min Rain = 0
KST4 141500Z 20015KT M04/M05 A3019 RMK A01 T10391046  RH  095%=      5-min Rain = 0
KST4 141501Z 20014KT M04/M05 A3019 RMK A01 T10391046  RH  095%=      5-min Rain = 0
KST4 141502Z 20011KT M04/M05 A3019 RMK A01 T10381046  RH  095%=      5-min Rain = 0
KST4 141503Z 20013KT M04/M05 A3019 RMK A01 T10381045  RH  095%=      5-min Rain = 0
KST4 141504Z 19015KT M04/M05 A3019 RMK A01 T10381045  RH  095%=      5-min Rain = 0
KST4 141505Z 20015KT M04/M05 A3019 RMK A01 T10381045  RH  095%=      5-min Rain = 0
KST4 141506Z 20015KT M04/M05 A3019 RMK A01 T10381045  RH  095%=      5-min Rain = 0
KST4 141507Z 20015KT M04/M05 A3019 RMK A01 T10381045  RH  095%=      5-min Rain = 0
KST4 141508Z 20013KT M04/M05 A3019 RMK A01 T10371045  RH  095%=      5-min Rain = 0
KST4 141509Z 20012KT M04/M04 A3019 RMK A01 T10371044  RH  095%=      5-min Rain = 0
KST4 141510Z 20012KT M04/M04 A3019 RMK A01 T10361043  RH  095%=      5-min Rain = 0
KST4 141511Z 20016KT M04/M04 A3019 RMK A01 T10361042  RH  095%=      5-min Rain = 0
KST4 141512Z 20015KT M04/M04 A3019 RMK A01 T10361043  RH  095%=      5-min Rain = 0
KST4 141513Z 20016KT M04/M04 A3019 RMK A01 T10351043  RH  095%=      5-min Rain = 0
KST4 141514Z 20016KT M04/M04 A3019 RMK A01 T10351042  RH  095%=      5-min Rain = 0
KST4 141515Z 20016KT M04/M04 A3019 RMK A01 T10351042  RH  095%=      5-min Rain = 0
KST4 141516Z 20014KT M03/M04 A3019 RMK A01 T10341041  RH  095%=      5-min Rain = 0
KST4 141517Z 20016KT M03/M04 A3019 RMK A01 T10341041  RH  095%=      5-min Rain = 0
KST4 141518Z 20016KT M03/M04 A3019 RMK A01 T10331040  RH  095%=      5-min Rain = 0
KST4 141519Z 19014KT M03/M04 A3019 RMK A01 T10331041  RH  095%=      5-min Rain = 0
KST4 141520Z 19014KT M03/M04 A3019 RMK A01 T10331040  RH  095%=      5-min Rain = 0
KST4 141521Z 20014KT M03/M04 A3019 RMK A01 T10321039  RH  095%=      5-min Rain = 0
KST4 141522Z 20013KT M03/M04 A3019 RMK A01 T10321039  RH  095%=      5-min Rain = 0
KST4 141523Z 20014KT M03/M04 A3019 RMK A01 T10311038  RH  095%=      5-min Rain = 0
KST4 141524Z 20015KT M03/M04 A3019 RMK A01 T10311038  RH  095%=      5-min Rain = 0
KST4 141525Z 20015KT M03/M04 A3019 RMK A01 T10311039  RH  095%=      5-min Rain = 0
KST4 141526Z 20013KT M03/M04 A3019 RMK A01 T10311038  RH  095%=      5-min Rain = 0
KST4 141527Z 20014KT M03/M04 A3019 RMK A01 T10301037  RH  095%=      5-min Rain = 0
KST4 141528Z 20016KT M03/M04 A3019 RMK A01 T10301037  RH  095%=      5-min Rain = 0
KST4 141529Z 20017G22KT M03/M04 A3019 RMK A01 T10301037  RH  095%=      5-min Rain = 0
KST4 141530Z 20017G22KT M03/M04 A3019 RMK A01 T10301037  RH  095%=      5-min Rain = 0
KST4 141531Z 20014KT M03/M04 A3019 RMK A01 T10301037  RH  095%=      5-min Rain = 0
KST4 141532Z 20016KT M03/M04 A3019 RMK A01 T10291036  RH  095%=      5-min Rain = 0
KST4 141533Z 20015KT M03/M04 A3019 RMK A01 T10291036  RH  095%=      5-min Rain = 0
KST4 141534Z 19014KT M03/M04 A3019 RMK A01 T10291037  RH  095%=      5-min Rain = 0
KST4 141535Z 20012KT M03/M04 A3019 RMK A01 T10291036  RH  095%=      5-min Rain = 0
KST4 141536Z 20014KT M03/M04 A3019 RMK A01 T10281035  RH  095%=      5-min Rain = 0
KST4 141537Z 20015KT M03/M04 A3019 RMK A01 T10281035  RH  095%=      5-min Rain = 0
KST4 141538Z 20017KT M03/M04 A3019 RMK A01 T10271035  RH  095%=      5-min Rain = 0
KST4 141539Z 20017KT M03/M04 A3019 RMK A01 T10281035  RH  095%=      5-min Rain = 0
KST4 141540Z 20017KT M03/M04 A3019 RMK A01 T10271035  RH  095%=      5-min Rain = 0
KST4 141541Z 20016KT M03/M04 A3019 RMK A01 T10271035  RH  095%=      5-min Rain = 0
KST4 141542Z 20015KT M03/M04 A3019 RMK A01 T10271035  RH  095%=      5-min Rain = 0
KST4 141543Z 20015KT M03/M03 A3019 RMK A01 T10271034  RH  095%=      5-min Rain = 0
KST4 141544Z 20016KT M03/M03 A3019 RMK A01 T10261034  RH  095%=      5-min Rain = 0
KST4 141545Z 20017KT M03/M03 A3018 RMK A01 T10261033  RH  095%=      5-min Rain = 0
KST4 141546Z 20016KT M03/M03 A3018 RMK A01 T10261034  RH  095%=      5-min Rain = 0
KST4 141547Z 20014KT M03/M03 A3019 RMK A01 T10261034  RH  095%=      5-min Rain = 0
KST4 141548Z 19013KT M03/M03 A3019 RMK A01 T10261033  RH  095%=      5-min Rain = 0
KST4 141549Z 19014KT M03/M03 A3019 RMK A01 T10261033  RH  095%=      5-min Rain = 0
KST4 141550Z 19014KT M03/M03 A3018 RMK A01 T10261034  RH  094%=      5-min Rain = 0
KST4 141551Z 20016KT M03/M03 A3018 RMK A01 T10261034  RH  095%=      5-min Rain = 0
KST4 141552Z 20015KT M03/M03 A3018 RMK A01 T10271034  RH  094%=      5-min Rain = 0
KST4 141553Z 20016KT M03/M04 A3018 RMK A01 T10271035  RH  094%=      5-min Rain = 0
KST4 141554Z 20015KT M03/M04 A3018 RMK A01 T10271035  RH  094%=      5-min Rain = 0
KST4 141555Z 20014KT M03/M03 A3018 RMK A01 T10271034  RH  095%=      5-min Rain = 0
KST4 141556Z 20017KT M03/M03 A3018 RMK A01 T10271034  RH  095%=      5-min Rain = 0
KST4 141557Z 20016KT M03/M03 A3018 RMK A01 T10271034  RH  094%=      5-min Rain = 0
KST4 141558Z 20017KT M03/M03 A3018 RMK A01 T10271034  RH  094%=      5-min Rain = 0
KST4 141559Z 20017KT M03/M03 A3018 RMK A01 T10261033  RH  095%=      5-min Rain = 0
KST4 141600Z 19015KT M03/M03 A3018 RMK A01 T10261033  RH  095%=      5-min Rain = 0
KST4 141601Z 20018KT M03/M03 A3018 RMK A01 T10251033  RH  095%=      5-min Rain = 0
KST4 141602Z 20016KT M03/M03 A3018 RMK A01 T10251033  RH  095%=      5-min Rain = 0
KST4 141603Z 20018KT M03/M03 A3018 RMK A01 T10251032  RH  095%=      5-min Rain = 0
KST4 141604Z 20019KT M03/M03 A3018 RMK A01 T10251033  RH  094%=      5-min Rain = 0
KST4 141605Z 20017KT M03/M03 A3018 RMK A01 T10251033  RH  094%=      5-min Rain = 0
KST4 141606Z 20015KT M03/M03 A3018 RMK A01 T10251033  RH  094%=      5-min Rain = 0
KST4 141607Z 19017KT M03/M03 A3018 RMK A01 T10251033  RH  094%=      5-min Rain = 0
KST4 141608Z 20017KT M02/M03 A3018 RMK A01 T10241032  RH  094%=      5-min Rain = 0
KST4 141609Z 19015KT M02/M03 A3018 RMK A01 T10241032  RH  094%=      5-min Rain = 0
KST4 141610Z 19017KT M02/M03 A3018 RMK A01 T10241032  RH  094%=      5-min Rain = 0
KST4 141611Z 20016KT M02/M03 A3018 RMK A01 T10241032  RH  094%=      5-min Rain = 0
KST4 141612Z 20017KT M02/M03 A3018 RMK A01 T10241031  RH  094%=      5-min Rain = 0
KST4 141613Z 20013KT M02/M03 A3018 RMK A01 T10231031  RH  094%=      5-min Rain = 0
KST4 141614Z 20017KT M02/M03 A3018 RMK A01 T10221030  RH  095%=      5-min Rain = 0
KST4 141615Z 20018KT M02/M03 A3018 RMK A01 T10221030  RH  094%=      5-min Rain = 0
KST4 141616Z 20019KT M02/M03 A3018 RMK A01 T10231031  RH  094%=      5-min Rain = 0
KST4 141617Z 20017KT M02/M03 A3018 RMK A01 T10231032  RH  094%=      5-min Rain = 0
KST4 141618Z 20016KT M02/M03 A3018 RMK A01 T10231031  RH  094%=      5-min Rain = 0
KST4 141619Z 20017KT M02/M03 A3017 RMK A01 T10231031  RH  094%=      5-min Rain = 0
KST4 141620Z 20015KT M02/M03 A3017 RMK A01 T10221031  RH  094%=      5-min Rain = 0
KST4 141621Z 20017KT M02/M03 A3017 RMK A01 T10221030  RH  094%=      5-min Rain = 0
KST4 141622Z 20017KT M02/M03 A3017 RMK A01 T10221030  RH  094%=      5-min Rain = 0
KST4 141623Z 20018KT M02/M03 A3017 RMK A01 T10211030  RH  094%=      5-min Rain = 0
KST4 141624Z 20018KT M02/M03 A3017 RMK A01 T10221030  RH  094%=      5-min Rain = 0
KST4 141625Z 20017KT M02/M03 A3017 RMK A01 T10211030  RH  094%=      5-min Rain = 0
KST4 141626Z 20016KT M02/M03 A3017 RMK A01 T10211029  RH  094%=      5-min Rain = 0
KST4 141627Z 20015KT M02/M03 A3017 RMK A01 T10201029  RH  094%=      5-min Rain = 0
KST4 141628Z 20014KT M02/M03 A3017 RMK A01 T10191028  RH  094%=      5-min Rain = 0
KST4 141629Z 20016KT M02/M03 A3017 RMK A01 T10191027  RH  094%=      5-min Rain = 0
KST4 141630Z 19015KT M02/M03 A3017 RMK A01 T10181027  RH  094%=      5-min Rain = 0
KST4 141631Z 19015KT M02/M03 A3017 RMK A01 T10181027  RH  094%=      5-min Rain = 0
KST4 141632Z 19015KT M02/M03 A3017 RMK A01 T10181027  RH  094%=      5-min Rain = 0
KST4 141633Z 20015KT M02/M03 A3017 RMK A01 T10181027  RH  094%=      5-min Rain = 0
KST4 141634Z 20016KT M02/M03 A3017 RMK A01 T10171026  RH  094%=      5-min Rain = 0
KST4 141635Z 20016KT M02/M03 A3016 RMK A01 T10171026  RH  094%=      5-min Rain = 0
KST4 141636Z 20016KT M02/M03 A3016 RMK A01 T10171026  RH  093%=      5-min Rain = 0
KST4 141637Z 20018KT M02/M03 A3016 RMK A01 T10171026  RH  094%=      5-min Rain = 0
KST4 141638Z 20019KT M02/M03 A3016 RMK A01 T10161025  RH  094%=      5-min Rain = 0
KST4 141639Z 20018G23KT M02/M03 A3016 RMK A01 T10161025  RH  094%=      5-min Rain = 0
KST4 141640Z 20016KT M02/M02 A3016 RMK A01 T10151024  RH  094%=      5-min Rain = 0
KST4 141641Z 20018KT M01/M02 A3016 RMK A01 T10141023  RH  094%=      5-min Rain = 0
KST4 141642Z 21015KT M01/M02 A3016 RMK A01 T10141023  RH  093%=      5-min Rain = 0
KST4 141643Z 20017KT M01/M02 A3016 RMK A01 T10131023  RH  094%=      5-min Rain = 0
KST4 141644Z 20015KT M01/M02 A3016 RMK A01 T10131022  RH  093%=      5-min Rain = 0
KST4 141645Z 20016KT M01/M02 A3016 RMK A01 T10121021  RH  094%=      5-min Rain = 0
KST4 141646Z 21013KT M01/M02 A3016 RMK A01 T10111020  RH  093%=      5-min Rain = 0
KST4 141647Z 20017KT M01/M02 A3016 RMK A01 T10101020  RH  093%=      5-min Rain = 0
KST4 141648Z 20017KT M01/M02 A3016 RMK A01 T10101020  RH  093%=      5-min Rain = 0
KST4 141649Z 20017KT M01/M02 A3016 RMK A01 T10101020  RH  093%=      5-min Rain = 0
KST4 141650Z 20016KT M01/M02 A3016 RMK A01 T10101020  RH  093%=      5-min Rain = 0
KST4 141651Z 20016KT M01/M02 A3016 RMK A01 T10091019  RH  093%=      5-min Rain = 0
KST4 141652Z 20017KT M01/M02 A3015 RMK A01 T10091019  RH  093%=      5-min Rain = 0
KST4 141653Z 20015KT M01/M02 A3015 RMK A01 T10081019  RH  093%=      5-min Rain = 0
KST4 141654Z 20016KT M01/M02 A3015 RMK A01 T10071017  RH  093%=      5-min Rain = 0
KST4 141655Z 20017KT M01/M02 A3015 RMK A01 T10061016  RH  093%=      5-min Rain = 0
KST4 141656Z 21017KT M01/M02 A3015 RMK A01 T10061016  RH  093%=      5-min Rain = 0
KST4 141657Z 20016KT M01/M02 A3015 RMK A01 T10051016  RH  092%=      5-min Rain = 0
KST4 141658Z 20018KT M00/M02 A3015 RMK A01 T10041015  RH  092%=      5-min Rain = 0
KST4 141659Z 20019KT M00/M02 A3015 RMK A01 T10041015  RH  092%=      5-min Rain = 0
KST4 141700Z 20019KT M00/M02 A3015 RMK A01 T10031015  RH  092%=      5-min Rain = 0
KST4 141701Z 21016KT M00/M02 A3015 RMK A01 T10031015  RH  091%=      5-min Rain = 0
KST4 141702Z 21017KT M00/M01 A3015 RMK A01 T10021014  RH  092%=      5-min Rain = 0
KST4 141703Z 21017KT M00/M01 A3015 RMK A01 T10011013  RH  092%=      5-min Rain = 0
KST4 141704Z 21016KT 00/01 A3015 RMK A01 T00-00-13  RH  091%=      5-min Rain = 0
KST4 141705Z 20014KT 00/M01 A3015 RMK A01 T00011012  RH  091%=      5-min Rain = 0
KST4 141706Z 21016G21KT 00/M01 A3015 RMK A01 T00021011  RH  091%=      5-min Rain = 0
KST4 141707Z 21018KT 00/M01 A3015 RMK A01 T00021012  RH  090%=      5-min Rain = 0
KST4 141708Z 21021KT 00/M01 A3015 RMK A01 T00021012  RH  090%=      5-min Rain = 0
KST4 141709Z 21018KT 00/M01 A3015 RMK A01 T00021014  RH  089%=      5-min Rain = 0
KST4 141710Z 21019KT 00/M01 A3015 RMK A01 T00021013  RH  090%=      5-min Rain = 0
KST4 141711Z 21016KT 00/M01 A3015 RMK A01 T00021013  RH  090%=      5-min Rain = 0
KST4 141712Z 21019KT 00/M01 A3015 RMK A01 T00031012  RH  090%=      5-min Rain = 0
KST4 141713Z 21018KT 00/M01 A3015 RMK A01 T00041012  RH  089%=      5-min Rain = 0
KST4 141714Z 20017KT 00/M01 A3015 RMK A01 T00041012  RH  089%=      5-min Rain = 0
KST4 141715Z 20018KT 01/M01 A3015 RMK A01 T00051011  RH  089%=      5-min Rain = 0
KST4 141716Z 21019KT 01/M01 A3015 RMK A01 T00061011  RH  088%=      5-min Rain = 0
KST4 141717Z 21021KT 01/M01 A3014 RMK A01 T00071011  RH  088%=      5-min Rain = 0
KST4 141718Z 21020KT 01/M01 A3014 RMK A01 T00071012  RH  088%=      5-min Rain = 0
KST4 141719Z 21021KT 01/M01 A3014 RMK A01 T00061012  RH  087%=      5-min Rain = 0
KST4 141720Z 21020KT 01/M01 A3014 RMK A01 T00071012  RH  087%=      5-min Rain = 0
KST4 141721Z 21019KT 01/M01 A3014 RMK A01 T00071011  RH  088%=      5-min Rain = 0
KST4 141722Z 21019KT 01/M01 A3014 RMK A01 T00081011  RH  087%=      5-min Rain = 0
KST4 141723Z 21018G23KT 01/M01 A3014 RMK A01 T00091011  RH  087%=      5-min Rain = 0
KST4 141724Z 20020KT 01/M01 A3014 RMK A01 T00101010  RH  087%=      5-min Rain = 0
KST4 141725Z 21016G21KT 01/M01 A3014 RMK A01 T00111009  RH  086%=      5-min Rain = 0
KST4 141726Z 21017KT 01/M01 A3014 RMK A01 T00121008  RH  086%=      5-min Rain = 0
KST4 141727Z 21018KT 01/M01 A3014 RMK A01 T00131008  RH  085%=      5-min Rain = 0
KST4 141728Z 22017KT 01/M01 A3014 RMK A01 T00131009  RH  085%=      5-min Rain = 0
KST4 141729Z 21016KT 01/M01 A3014 RMK A01 T00141009  RH  085%=      5-min Rain = 0
KST4 141730Z 22021KT 02/M01 A3014 RMK A01 T00151008  RH  085%=      5-min Rain = 0
KST4 141731Z 21022KT 01/M01 A3014 RMK A01 T00141011  RH  084%=      5-min Rain = 0
KST4 141732Z 21018KT 01/M01 A3014 RMK A01 T00121012  RH  084%=      5-min Rain = 0
KST4 141733Z 21017KT 01/M01 A3014 RMK A01 T00131010  RH  085%=      5-min Rain = 0
KST4 141734Z 21019KT 01/M01 A3014 RMK A01 T00141009  RH  085%=      5-min Rain = 0
KST4 141735Z 21020KT 02/M01 A3014 RMK A01 T00151010  RH  084%=      5-min Rain = 0
KST4 141736Z 21019KT 02/M01 A3014 RMK A01 T00151009  RH  084%=      5-min Rain = 0
KST4 141737Z 21019G24KT 02/M01 A3014 RMK A01 T00151010  RH  084%=      5-min Rain = 0
KST4 141738Z 21021KT 02/M01 A3014 RMK A01 T00161010  RH  083%=      5-min Rain = 0
KST4 141739Z 21022KT 02/M01 A3014 RMK A01 T00151010  RH  083%=      5-min Rain = 0
KST4 141740Z 21021KT 02/M01 A3013 RMK A01 T00151011  RH  083%=      5-min Rain = 0
KST4 141741Z 21022KT 02/M01 A3013 RMK A01 T00161011  RH  083%=      5-min Rain = 0
KST4 141742Z 21022KT 02/M01 A3013 RMK A01 T00161011  RH  082%=      5-min Rain = 0
KST4 141743Z 21023KT 02/M01 A3013 RMK A01 T00171011  RH  082%=      5-min Rain = 0
KST4 141744Z 21022KT 02/M01 A3013 RMK A01 T00181010  RH  082%=      5-min Rain = 0
KST4 141745Z 22021G26KT 02/M01 A3013 RMK A01 T00181010  RH  081%=      5-min Rain = 0
KST4 141746Z 22019KT 02/M01 A3013 RMK A01 T00191010  RH  081%=      5-min Rain = 0
KST4 141747Z 22018KT 02/M01 A3013 RMK A01 T00211009  RH  081%=      5-min Rain = 0
KST4 141748Z 21018KT 02/M01 A3013 RMK A01 T00221008  RH  080%=      5-min Rain = 0
KST4 141749Z 21018KT 02/M01 A3013 RMK A01 T00231008  RH  080%=      5-min Rain = 0
KST4 141750Z 22018KT 03/M01 A3013 RMK A01 T00251006  RH  080%=      5-min Rain = 0
KST4 141751Z 22021KT 03/M01 A3013 RMK A01 T00261007  RH  078%=      5-min Rain = 0
KST4 141752Z 22022KT 03/M01 A3013 RMK A01 T00251010  RH  078%=      5-min Rain = 0
KST4 141753Z 22021KT 02/M01 A3013 RMK A01 T00241010  RH  078%=      5-min Rain = 0
KST4 141754Z 22022KT 02/M01 A3013 RMK A01 T00241009  RH  078%=      5-min Rain = 0
KST4 141755Z 22021KT 02/M01 A3013 RMK A01 T00241010  RH  078%=      5-min Rain = 0
KST4 141756Z 21020KT 03/M01 A3013 RMK A01 T00251009  RH  079%=      5-min Rain = 0
KST4 141757Z 21021KT 03/M01 A3013 RMK A01 T00271008  RH  078%=      5-min Rain = 0
KST4 141758Z 21021KT 03/M01 A3013 RMK A01 T00281008  RH  077%=      5-min Rain = 0
KST4 141759Z 21021G26KT 03/M01 A3013 RMK A01 T00281008  RH  077%=      5-min Rain = 0
KST4 141800Z 22021KT 03/M01 A3013 RMK A01 T00291009  RH  076%=      5-min Rain = 0
KST4 141801Z 22022KT 03/M01 A3013 RMK A01 T00281009  RH  077%=      5-min Rain = 0
KST4 141802Z 22022KT 03/M01 A3013 RMK A01 T00281009  RH  076%=      5-min Rain = 0
KST4 141803Z 22022KT 03/M01 A3013 RMK A01 T00291009  RH  076%=      5-min Rain = 0
KST4 141804Z 22023KT 03/M01 A3013 RMK A01 T00291008  RH  076%=      5-min Rain = 0
KST4 141805Z 22022KT 03/M01 A3013 RMK A01 T00301009  RH  076%=      5-min Rain = 0
KST4 141806Z 23023KT 03/M01 A3013 RMK A01 T00311008  RH  076%=      5-min Rain = 0
KST4 141807Z 21020G26KT 03/M01 A3013 RMK A01 T00321009  RH  075%=      5-min Rain = 0
KST4 141808Z 22023KT 03/M01 A3013 RMK A01 T00331008  RH  075%=      5-min Rain = 0
KST4 141809Z 23022KT 03/M01 A3012 RMK A01 T00331009  RH  074%=      5-min Rain = 0
KST4 141810Z 22018KT 03/M01 A3012 RMK A01 T00331008  RH  075%=      5-min Rain = 0
KST4 141811Z 22021KT 04/M01 A3012 RMK A01 T00351006  RH  074%=      5-min Rain = 0
KST4 141812Z 22021KT 04/M01 A3012 RMK A01 T00351009  RH  073%=      5-min Rain = 0
KST4 141813Z 22021G26KT 03/M01 A3012 RMK A01 T00341008  RH  074%=      5-min Rain = 0
KST4 141814Z 22023KT 04/M01 A3012 RMK A01 T00351008  RH  074%=      5-min Rain = 0
KST4 141815Z 22024KT 04/M01 A3012 RMK A01 T00351009  RH  073%=      5-min Rain = 0
KST4 141816Z 22021KT 04/M01 A3012 RMK A01 T00351009  RH  073%=      5-min Rain = 0
KST4 141817Z 22021KT 04/M01 A3012 RMK A01 T00361008  RH  073%=      5-min Rain = 0
KST4 141818Z 22020KT 04/M01 A3012 RMK A01 T00351009  RH  073%=      5-min Rain = 0
KST4 141819Z 22025KT 04/M01 A3012 RMK A01 T00351008  RH  074%=      5-min Rain = 0
KST4 141820Z 22022KT 04/M01 A3012 RMK A01 T00351008  RH  073%=      5-min Rain = 0
KST4 141821Z 23022KT 04/M01 A3012 RMK A01 T00351008  RH  074%=      5-min Rain = 0
KST4 141822Z 23022KT 03/M01 A3011 RMK A01 T00341010  RH  073%=      5-min Rain = 0
KST4 141823Z 22022KT 03/M01 A3011 RMK A01 T00341010  RH  073%=      5-min Rain = 0
KST4 141824Z 21020KT 04/M01 A3011 RMK A01 T00351008  RH  073%=      5-min Rain = 0
KST4 141825Z 21024KT 04/M01 A3011 RMK A01 T00401005  RH  073%=      5-min Rain = 0
KST4 141826Z 22021G27KT 04/M01 A3011 RMK A01 T00401008  RH  071%=      5-min Rain = 0
KST4 141827Z 23019KT 04/M01 A3011 RMK A01 T00401007  RH  072%=      5-min Rain = 0
KST4 141828Z 23020KT 04/M01 A3011 RMK A01 T00401007  RH  071%=      5-min Rain = 0
KST4 141829Z 22021KT 04/M01 A3011 RMK A01 T00401007  RH  071%=      5-min Rain = 0
KST4 141830Z 22020KT 04/M01 A3011 RMK A01 T00391008  RH  071%=      5-min Rain = 0
KST4 141831Z 23020KT 04/M01 A3011 RMK A01 T00381008  RH  072%=      5-min Rain = 0
KST4 141832Z 22021KT 04/M01 A3011 RMK A01 T00371008  RH  072%=      5-min Rain = 0
KST4 141833Z 23022KT 04/M01 A301 RMK A01 T00391006  RH  072%=      5-min Rain = 0
KST4 141834Z 22020KT 04/M01 A301 RMK A01 T00401007  RH  072%=      5-min Rain = 0
KST4 141835Z 22022KT 04/M01 A301 RMK A01 T00391008  RH  072%=      5-min Rain = 0
KST4 141836Z 23021KT 04/M01 A301 RMK A01 T00381008  RH  072%=      5-min Rain = 0
KST4 141837Z 22020KT 04/M01 A301 RMK A01 T00371008  RH  072%=      5-min Rain = 0
KST4 141838Z 22022KT 04/M01 A301 RMK A01 T00371008  RH  073%=      5-min Rain = 0
KST4 141839Z 22022KT 04/M01 A301 RMK A01 T00371007  RH  073%=      5-min Rain = 0
KST4 141840Z 22022KT 04/M01 A301 RMK A01 T00371007  RH  073%=      5-min Rain = 0
KST4 141841Z 22022G27KT 04/M00 A3009 RMK A01 T00391004  RH  074%=      5-min Rain = 0
KST4 141842Z 22023KT 04/M00 A3009 RMK A01 T00431004  RH  072%=      5-min Rain = 0
KST4 141843Z 22022KT 04/M01 A3009 RMK A01 T00411008  RH  071%=      5-min Rain = 0
KST4 141844Z 23022KT 04/M01 A3009 RMK A01 T00401007  RH  071%=      5-min Rain = 0
KST4 141845Z 23022KT 04/M01 A3009 RMK A01 T00401006  RH  072%=      5-min Rain = 0
KST4 141846Z 22024KT 04/M01 A3009 RMK A01 T00401006  RH  072%=      5-min Rain = 0
KST4 141847Z 22023KT 04/M01 A3009 RMK A01 T00401006  RH  072%=      5-min Rain = 0
KST4 141848Z 22022KT 04/M00 A3009 RMK A01 T00421004  RH  072%=      5-min Rain = 0
KST4 141849Z 22023KT 04/M00 A3009 RMK A01 T00431004  RH  071%=      5-min Rain = 0
KST4 141850Z 21021KT 04/M01 A3009 RMK A01 T00411006  RH  071%=      5-min Rain = 0
KST4 141851Z 22021KT 04/M01 A3009 RMK A01 T00401006  RH  072%=      5-min Rain = 0
KST4 141852Z 22023KT 04/M01 A3009 RMK A01 T00401005  RH  072%=      5-min Rain = 0
KST4 141853Z 22025KT 04/M01 A3009 RMK A01 T00401006  RH  072%=      5-min Rain = 0
KST4 141854Z 22023KT 04/M01 A3009 RMK A01 T00381007  RH  073%=      5-min Rain = 0
KST4 141855Z 21023KT 04/M01 A3009 RMK A01 T00391006  RH  073%=      5-min Rain = 0
KST4 141856Z 22022KT 04/M01 A3009 RMK A01 T00391006  RH  072%=      5-min Rain = 0
KST4 141857Z 22022KT 04/M01 A3009 RMK A01 T00391006  RH  072%=      5-min Rain = 0
KST4 141858Z 21021KT 04/M01 A3009 RMK A01 T00391005  RH  073%=      5-min Rain = 0
KST4 141859Z 22023KT 04/M01 A3009 RMK A01 T00401006  RH  072%=      5-min Rain = 0
KST4 141900Z 22024KT 04/M01 A3009 RMK A01 T00391006  RH  072%=      5-min Rain = 0
KST4 141901Z 22023KT 04/M01 A3009 RMK A01 T00391006  RH  073%=      5-min Rain = 0
KST4 141902Z 22024KT 04/M01 A3009 RMK A01 T00391006  RH  072%=      5-min Rain = 0
KST4 141903Z 21024KT 04/M01 A3009 RMK A01 T00401006  RH  072%=      5-min Rain = 0
KST4 141904Z 22022KT 04/M01 A3009 RMK A01 T00401006  RH  072%=      5-min Rain = 0
KST4 141905Z 22023KT 04/M01 A3009 RMK A01 T00401005  RH  072%=      5-min Rain = 0
KST4 141906Z 22020KT 04/M01 A3009 RMK A01 T00411005  RH  072%=      5-min Rain = 0
KST4 141907Z 21021KT 04/M00 A3009 RMK A01 T00421004  RH  072%=      5-min Rain = 0
KST4 141908Z 22021KT 04/M00 A3008 RMK A01 T00441004  RH  071%=      5-min Rain = 0
KST4 141909Z 21023KT 04/M01 A3008 RMK A01 T00441005  RH  071%=      5-min Rain = 0
KST4 141910Z 21022KT 04/M00 A3008 RMK A01 T00441004  RH  071%=      5-min Rain = 0
KST4 141911Z 21023KT 04/M01 A3008 RMK A01 T00441005  RH  071%=      5-min Rain = 0
KST4 141912Z 22023KT 04/M01 A3008 RMK A01 T00441005  RH  070%=      5-min Rain = 0
KST4 141913Z 22022KT 04/M01 A3008 RMK A01 T00431006  RH  071%=      5-min Rain = 0
KST4 141914Z 22024KT 04/M01 A3008 RMK A01 T00421006  RH  071%=      5-min Rain = 0
KST4 141915Z 22020G25KT 04/M01 A3008 RMK A01 T00411006  RH  071%=      5-min Rain = 0
KST4 141916Z 22024G29KT 04/M01 A3008 RMK A01 T00421005  RH  072%=      5-min Rain = 0
KST4 141917Z 22024KT 04/M01 A3008 RMK A01 T00421005  RH  072%=      5-min Rain = 0
KST4 141918Z 22022KT 04/M01 A3008 RMK A01 T00421005  RH  071%=      5-min Rain = 0
KST4 141919Z 22025KT 04/M00 A3008 RMK A01 T00431004  RH  071%=      5-min Rain = 0
KST4 141920Z 22023G28KT 04/M00 A3008 RMK A01 T00441004  RH  071%=      5-min Rain = 0
KST4 141921Z 22022KT 04/M01 A3008 RMK A01 T00441005  RH  070%=      5-min Rain = 0
KST4 141922Z 21021G27KT 05/M00 A3008 RMK A01 T00451004  RH  070%=      5-min Rain = 0
KST4 141923Z 21023KT 05/M00 A3007 RMK A01 T00451004  RH  070%=      5-min Rain = 0
KST4 141924Z 20020G25KT 05/M00 A3007 RMK A01 T00471004  RH  069%=      5-min Rain = 0
KST4 141925Z 22020KT 05/M00 A3007 RMK A01 T00491002  RH  070%=      5-min Rain = 0
KST4 141926Z 22022KT 05/M00 A3007 RMK A01 T00501003  RH  068%=      5-min Rain = 0
KST4 141927Z 22020KT 05/M00 A3007 RMK A01 T00491004  RH  069%=      5-min Rain = 0
KST4 141928Z 21022G27KT 05/M00 A3007 RMK A01 T00491003  RH  069%=      5-min Rain = 0
KST4 141929Z 21023KT 05/M00 A3007 RMK A01 T00491004  RH  068%=      5-min Rain = 0
KST4 141930Z 22020KT 05/M01 A3007 RMK A01 T00491005  RH  068%=      5-min Rain = 0
KST4 141931Z 22023KT 05/M00 A3007 RMK A01 T00491004  RH  069%=      5-min Rain = 0
KST4 141932Z 22021KT 05/M00 A3007 RMK A01 T00491004  RH  068%=      5-min Rain = 0
KST4 141933Z 21023KT 05/M00 A3007 RMK A01 T00501004  RH  068%=      5-min Rain = 0
KST4 141934Z 21023KT 05/M00 A3007 RMK A01 T00501004  RH  068%=      5-min Rain = 0
KST4 141935Z 21022KT 05/M00 A3006 RMK A01 T00511004  RH  068%=      5-min Rain = 0
KST4 141936Z 22021G26KT 05/M00 A3006 RMK A01 T00511004  RH  068%=      5-min Rain = 0
KST4 141937Z 22027KT 05/M00 A3006 RMK A01 T00521003  RH  067%=      5-min Rain = 0
KST4 141938Z 22023KT 05/M01 A3006 RMK A01 T00521005  RH  067%=      5-min Rain = 0
KST4 141939Z 23021KT 05/M01 A3006 RMK A01 T00501006  RH  067%=      5-min Rain = 0
KST4 141940Z 22022KT 05/M01 A3006 RMK A01 T00501006  RH  067%=      5-min Rain = 0
KST4 141941Z 22024KT 05/M01 A3006 RMK A01 T00501005  RH  067%=      5-min Rain = 0
KST4 141942Z 22026KT 05/M01 A3006 RMK A01 T00511005  RH  067%=      5-min Rain = 0
KST4 141943Z 22023KT 05/M00 A3006 RMK A01 T00531004  RH  067%=      5-min Rain = 0
KST4 141944Z 22023KT 05/M01 A3006 RMK A01 T00531005  RH  066%=      5-min Rain = 0
KST4 141945Z 22025KT 05/M01 A3005 RMK A01 T00531005  RH  066%=      5-min Rain = 0
KST4 141946Z 21022KT 05/M00 A3005 RMK A01 T00541004  RH  066%=      5-min Rain = 0
KST4 141947Z 21020KT 06/M00 A3005 RMK A01 T00561004  RH  065%=      5-min Rain = 0
KST4 141948Z 21021KT 06/M01 A3005 RMK A01 T00551005  RH  065%=      5-min Rain = 0
KST4 141949Z 22022KT 06/M00 A3005 RMK A01 T00571002  RH  066%=      5-min Rain = 0
KST4 141950Z 21019KT 06/M00 A3005 RMK A01 T00611001  RH  064%=      5-min Rain = 0
KST4 141951Z 22020G25KT 06/00 A3005 RMK A01 T00640003  RH  065%=      5-min Rain = 0
KST4 141952Z 21024KT 07/00 A3005 RMK A01 T00690002  RH  062%=      5-min Rain = 0
KST4 141953Z 21024KT 07/M01 A3004 RMK A01 T00661005  RH  061%=      5-min Rain = 0
KST4 141954Z 21021KT 06/M01 A3005 RMK A01 T00621007  RH  062%=      5-min Rain = 0
KST4 141955Z 21020G25KT 06/M01 A3004 RMK A01 T00611005  RH  063%=      5-min Rain = 0
KST4 141956Z 21026KT 07/00 A3004 RMK A01 T006500-0  RH  063%=      5-min Rain = 0
KST4 141957Z 21024KT 07/M00 A3004 RMK A01 T00661002  RH  061%=      5-min Rain = 0
KST4 141958Z 21021KT 07/M00 A3004 RMK A01 T00671002  RH  062%=      5-min Rain = 0
KST4 141959Z 22026KT 07/M00 A3004 RMK A01 T00691002  RH  061%=      5-min Rain = 0
KST4 142000Z 22022G28KT 07/M00 A3004 RMK A01 T00671004  RH  060%=      5-min Rain = 0
KST4 142001Z 21019KT 07/M00 A3004 RMK A01 T00671003  RH  061%=      5-min Rain = 0
KST4 142002Z 20021KT 07/M00 A3004 RMK A01 T00701001  RH  061%=      5-min Rain = 0
KST4 142003Z 22024KT 07/M00 A3003 RMK A01 T00711004  RH  059%=      5-min Rain = 0
KST4 142004Z 22023KT 07/M00 A3003 RMK A01 T00701003  RH  060%=      5-min Rain = 0
KST4 142005Z 22022KT 07/M00 A3003 RMK A01 T00711003  RH  059%=      5-min Rain = 0
KST4 142006Z 21023KT 07/M01 A3003 RMK A01 T00691005  RH  059%=      5-min Rain = 0
KST4 142007Z 21026KT 07/M00 A3003 RMK A01 T00701004  RH  059%=      5-min Rain = 0
KST4 142008Z 21021KT 07/M00 A3003 RMK A01 T00701004  RH  059%=      5-min Rain = 0
KST4 142009Z 21023G28KT 07/M00 A3003 RMK A01 T00721002  RH  059%=      5-min Rain = 0
KST4 142010Z 22022G27KT 07/M00 A3003 RMK A01 T00741003  RH  058%=      5-min Rain = 0
KST4 142011Z 23025KT 07/M01 A3003 RMK A01 T00731005  RH  058%=      5-min Rain = 0
KST4 142012Z 22023G28KT 07/M01 A3003 RMK A01 T00711005  RH  058%=      5-min Rain = 0
KST4 142013Z 22021KT 07/M00 A3003 RMK A01 T00731003  RH  059%=      5-min Rain = 0
KST4 142014Z 21024G29KT 07/M00 A3003 RMK A01 T00731004  RH  058%=      5-min Rain = 0
KST4 142015Z 22024KT 07/M01 A3003 RMK A01 T00721006  RH  058%=      5-min Rain = 0
KST4 142016Z 21022G27KT 07/M00 A3003 RMK A01 T00741003  RH  058%=      5-min Rain = 0
KST4 142017Z 22025KT 08/M00 A3003 RMK A01 T00761004  RH  057%=      5-min Rain = 0
KST4 142018Z 23026KT 07/M01 A3003 RMK A01 T00731006  RH  057%=      5-min Rain = 0
KST4 142019Z 23023KT 07/M01 A3003 RMK A01 T00731005  RH  057%=      5-min Rain = 0
KST4 142020Z 23021KT 07/M01 A3003 RMK A01 T00741005  RH  057%=      5-min Rain = 0
KST4 142021Z 21019KT 08/M00 A3003 RMK A01 T00751004  RH  057%=      5-min Rain = 0
KST4 142022Z 22021KT 08/M00 A3003 RMK A01 T00761004  RH  057%=      5-min Rain = 0
KST4 142023Z 21022KT 08/M00 A3003 RMK A01 T00771004  RH  057%=      5-min Rain = 0
KST4 142024Z 23026KT 08/M00 A3003 RMK A01 T00771004  RH  056%=      5-min Rain = 0
KST4 142025Z 22026KT 08/M01 A3003 RMK A01 T00771005  RH  056%=      5-min Rain = 0
KST4 142026Z 22023KT 08/M01 A3003 RMK A01 T00761006  RH  056%=      5-min Rain = 0
KST4 142027Z 21022G28KT 08/M00 A3002 RMK A01 T00761004  RH  057%=      5-min Rain = 0
KST4 142028Z 22023G28KT 08/M01 A3002 RMK A01 T00791005  RH  055%=      5-min Rain = 0
KST4 142029Z 21022KT 08/M00 A3002 RMK A01 T00821003  RH  055%=      5-min Rain = 0
KST4 142030Z 22020KT 08/M00 A3002 RMK A01 T00841001  RH  055%=      5-min Rain = 0
KST4 142031Z 23021G26KT 09/M00 A3002 RMK A01 T00851003  RH  054%=      5-min Rain = 0
KST4 142032Z 23024KT 08/M01 A3002 RMK A01 T00811005  RH  054%=      5-min Rain = 0
KST4 142033Z 22022KT 08/M01 A3002 RMK A01 T00801005  RH  055%=      5-min Rain = 0
KST4 142034Z 22020KT 08/M00 A3002 RMK A01 T00801003  RH  056%=      5-min Rain = 0
KST4 142035Z 21024KT 08/M00 A3002 RMK A01 T00831002  RH  055%=      5-min Rain = 0
KST4 142036Z 22020KT 08/M01 A3002 RMK A01 T00821005  RH  054%=      5-min Rain = 0
KST4 142037Z 22021G26KT 08/M00 A3002 RMK A01 T00831003  RH  055%=      5-min Rain = 0
KST4 142038Z 22021G29KT 09/M00 A3001 RMK A01 T00851004  RH  054%=      5-min Rain = 0
KST4 142039Z 22022G27KT 09/M01 A3001 RMK A01 T00851005  RH  053%=      5-min Rain = 0
KST4 142040Z 22019KT 09/M00 A3001 RMK A01 T00871003  RH  053%=      5-min Rain = 0
KST4 142041Z 22022KT 09/M00 A3001 RMK A01 T00891003  RH  053%=      5-min Rain = 0
KST4 142042Z 22023KT 09/M00 A3001 RMK A01 T00891003  RH  053%=      5-min Rain = 0
KST4 142043Z 22022KT 09/M00 A3001 RMK A01 T00891004  RH  052%=      5-min Rain = 0
KST4 142044Z 23021KT 09/M00 A3001 RMK A01 T00901004  RH  052%=      5-min Rain = 0
KST4 142045Z 23022KT 09/M00 A3001 RMK A01 T00921003  RH  052%=      5-min Rain = 0
KST4 142046Z 23020KT 09/M01 A3001 RMK A01 T00911006  RH  051%=      5-min Rain = 0
KST4 142047Z 23022KT 09/M01 A3001 RMK A01 T00881005  RH  052%=      5-min Rain = 0
KST4 142048Z 21020G25KT 09/M01 A3001 RMK A01 T00871006  RH  052%=      5-min Rain = 0
KST4 142049Z 21022KT 09/M01 A3001 RMK A01 T00871006  RH  052%=      5-min Rain = 0
KST4 142050Z 21023KT 09/M01 A3001 RMK A01 T00851008  RH  052%=      5-min Rain = 0
KST4 142051Z 21021KT 08/M01 A3001 RMK A01 T00831007  RH  053%=      5-min Rain = 0
KST4 142052Z 20021KT 09/M01 A3001 RMK A01 T00851005  RH  053%=      5-min Rain = 0
KST4 142053Z 21021KT 09/M00 A3001 RMK A01 T00881003  RH  053%=      5-min Rain = 0
KST4 142054Z 21023G30KT 09/M00 A30 RMK A01 T00911002  RH  052%=      5-min Rain = 0
KST4 142055Z 21027KT 09/M01 A30 RMK A01 T00921005  RH  051%=      5-min Rain = 0
KST4 142056Z 21024KT 09/M01 A30 RMK A01 T00891006  RH  051%=      5-min Rain = 0
KST4 142057Z 22024KT 09/M01 A30 RMK A01 T00881005  RH  052%=      5-min Rain = 0
KST4 142058Z 23022KT 09/M01 A30 RMK A01 T00871005  RH  052%=      5-min Rain = 0
KST4 142059Z 22022KT 09/M01 A30 RMK A01 T00861005  RH  053%=      5-min Rain = 0
KST4 142100Z 21022KT 08/M01 A30 RMK A01 T00841005  RH  054%=      5-min Rain = 0
KST4 142101Z 20023KT 08/M00 A30 RMK A01 T00841004  RH  054%=      5-min Rain = 0
KST4 142102Z 21019KT 08/M00 A30 RMK A01 T00841003  RH  054%=      5-min Rain = 0
KST4 142103Z 21020KT 08/M00 A30 RMK A01 T00841002  RH  055%=      5-min Rain = 0
KST4 142104Z 20016G21KT 08/M00 A30 RMK A01 T00841002  RH  055%=      5-min Rain = 0
KST4 142105Z 21021KT 09/M00 A30 RMK A01 T00851001  RH  055%=      5-min Rain = 0
KST4 142106Z 20021KT 09/M00 A30 RMK A01 T00861002  RH  054%=      5-min Rain = 0
KST4 142107Z 20023KT 09/M00 A30 RMK A01 T00861002  RH  054%=      5-min Rain = 0
KST4 142108Z 21020G25KT 09/M00 A2999 RMK A01 T00851004  RH  054%=      5-min Rain = 0
KST4 142109Z 21020KT 08/M00 A30 RMK A01 T00841003  RH  054%=      5-min Rain = 0
KST4 142110Z 21021G27KT 08/M00 A2999 RMK A01 T00841002  RH  054%=      5-min Rain = 0
KST4 142111Z 21022G27KT 08/M00 A2999 RMK A01 T00841004  RH  054%=      5-min Rain = 0
KST4 142112Z 21021KT 08/M01 A2999 RMK A01 T00811005  RH  054%=      5-min Rain = 0
KST4 142113Z 21023KT 08/M01 A2999 RMK A01 T00801005  RH  055%=      5-min Rain = 0
KST4 142114Z 21022KT 08/M00 A2999 RMK A01 T00801004  RH  055%=      5-min Rain = 0
KST4 142115Z 21020KT 08/M00 A2999 RMK A01 T00801004  RH  055%=      5-min Rain = 0
KST4 142116Z 21021KT 08/M00 A2999 RMK A01 T00801004  RH  055%=      5-min Rain = 0
KST4 142117Z 21022KT 08/M00 A2999 RMK A01 T00821004  RH  055%=      5-min Rain = 0
KST4 142118Z 22022KT 09/M00 A2999 RMK A01 T00861002  RH  054%=      5-min Rain = 0
KST4 142119Z 22023KT 09/M00 A2999 RMK A01 T00891001  RH  053%=      5-min Rain = 0
KST4 142120Z 22021G26KT 09/00 A2999 RMK A01 T009200-0  RH  052%=      5-min Rain = 0
KST4 142121Z 22021KT 10/00 A2999 RMK A01 T00950001  RH  052%=      5-min Rain = 0
KST4 142122Z 21023G28KT 10/00 A2999 RMK A01 T01000003  RH  051%=      5-min Rain = 0
KST4 142123Z 21022G27KT 10/00 A2999 RMK A01 T01030002  RH  049%=      5-min Rain = 0
KST4 142124Z 21028KT 10/M00 A2999 RMK A01 T01031001  RH  049%=      5-min Rain = 0
KST4 142125Z 21024G29KT 10/M00 A2999 RMK A01 T01011004  RH  048%=      5-min Rain = 0
KST4 142126Z 21021KT 10/M00 A2999 RMK A01 T00991003  RH  049%=      5-min Rain = 0
KST4 142127Z 20020KT 10/00 A2999 RMK A01 T010200-0  RH  049%=      5-min Rain = 0
KST4 142128Z 21025G30KT 11/00 A2999 RMK A01 T010600-0  RH  048%=      5-min Rain = 0
KST4 142129Z 22024KT 11/M00 A2999 RMK A01 T01061003  RH  047%=      5-min Rain = 0
KST4 142130Z 22023G28KT 10/M01 A2998 RMK A01 T01031005  RH  047%=      5-min Rain = 0
KST4 142131Z 22025KT 10/M00 A2999 RMK A01 T01031004  RH  048%=      5-min Rain = 0
KST4 142132Z 22025KT 10/M00 A2998 RMK A01 T01021004  RH  048%=      5-min Rain = 0
KST4 142133Z 22024KT 10/M01 A2998 RMK A01 T01011005  RH  048%=      5-min Rain = 0
KST4 142134Z 20028KT 10/M01 A2998 RMK A01 T01001006  RH  048%=      5-min Rain = 0
KST4 142135Z 21026G31KT 10/M01 A2998 RMK A01 T00991007  RH  048%=      5-min Rain = 0
KST4 142136Z 21025G30KT 10/M01 A2998 RMK A01 T00991005  RH  048%=      5-min Rain = 0
KST4 142137Z 21024KT 10/M01 A2998 RMK A01 T00991005  RH  048%=      5-min Rain = 0
KST4 142138Z 21022KT 10/M01 A2998 RMK A01 T00971005  RH  049%=      5-min Rain = 0
KST4 142139Z 20024KT 10/M01 A2998 RMK A01 T00971005  RH  049%=      5-min Rain = 0
KST4 142140Z 20025KT 10/M01 A2998 RMK A01 T00971006  RH  049%=      5-min Rain = 0
KST4 142141Z 20024KT 10/M01 A2998 RMK A01 T00961005  RH  049%=      5-min Rain = 0
KST4 142142Z 20022KT 10/M01 A2998 RMK A01 T00951005  RH  050%=      5-min Rain = 0
KST4 142143Z 21021KT 09/M01 A2998 RMK A01 T00941005  RH  050%=      5-min Rain = 0
KST4 142144Z 21020KT 09/M01 A2998 RMK A01 T00931005  RH  050%=      5-min Rain = 0
KST4 142145Z 21018KT 09/M01 A2998 RMK A01 T00911006  RH  051%=      5-min Rain = 0
KST4 142146Z 21016KT 09/M01 A2997 RMK A01 T00901005  RH  051%=      5-min Rain = 0
KST4 142147Z 21018G23KT 09/M01 A2997 RMK A01 T00901005  RH  051%=      5-min Rain = 0
KST4 142148Z 21021KT 09/M01 A2997 RMK A01 T00901006  RH  051%=      5-min Rain = 0
KST4 142149Z 21020KT 09/M01 A2997 RMK A01 T00891007  RH  051%=      5-min Rain = 0
KST4 142150Z 21021KT 09/M01 A2997 RMK A01 T00881007  RH  051%=      5-min Rain = 0
KST4 142151Z 20019KT 09/M01 A2997 RMK A01 T00881007  RH  051%=      5-min Rain = 0
KST4 142152Z 20020KT 09/M01 A2997 RMK A01 T00881006  RH  052%=      5-min Rain = 0
KST4 142153Z 20021KT 09/M01 A2997 RMK A01 T00871006  RH  052%=      5-min Rain = 0
KST4 142154Z 21020KT 09/M01 A2997 RMK A01 T00881006  RH  052%=      5-min Rain = 0
KST4 142155Z 21020KT 09/M00 A2997 RMK A01 T00901004  RH  052%=      5-min Rain = 0
KST4 142156Z 20021KT 09/M00 A2997 RMK A01 T00941002  RH  051%=      5-min Rain = 0
KST4 142157Z 20021KT 10/M00 A2997 RMK A01 T00961001  RH  051%=      5-min Rain = 0
KST4 142158Z 20023KT 10/M00 A2997 RMK A01 T00961001  RH  051%=      5-min Rain = 0
KST4 142159Z 21022KT 10/M00 A2997 RMK A01 T00961001  RH  051%=      5-min Rain = 0
KST4 142200Z 20022KT 10/M00 A2997 RMK A01 T00951002  RH  051%=      5-min Rain = 0
KST4 142201Z 20021KT 10/M00 A2997 RMK A01 T00951001  RH  051%=      5-min Rain = 0
KST4 142202Z 20020KT 10/M00 A2997 RMK A01 T00951001  RH  051%=      5-min Rain = 0
KST4 142203Z 21019KT 10/00 A2997 RMK A01 T009600-0  RH  051%=      5-min Rain = 0
KST4 142204Z 20021KT 10/00 A2997 RMK A01 T00970001  RH  051%=      5-min Rain = 0
KST4 142205Z 20022KT 10/00 A2997 RMK A01 T00990001  RH  051%=      5-min Rain = 0
KST4 142206Z 20022G27KT 10/00 A2996 RMK A01 T00980001  RH  051%=      5-min Rain = 0
KST4 142207Z 20021KT 10/00 A2997 RMK A01 T01000001  RH  050%=      5-min Rain = 0
KST4 142208Z 20024KT 10/00 A2996 RMK A01 T01010001  RH  050%=      5-min Rain = 0
KST4 142209Z 21022KT 10/00 A2996 RMK A01 T010000-0  RH  050%=      5-min Rain = 0
KST4 142210Z 21020G25KT 10/M00 A2996 RMK A01 T00981001  RH  050%=      5-min Rain = 0
KST4 142211Z 20020G25KT 10/M00 A2996 RMK A01 T00961001  RH  051%=      5-min Rain = 0
KST4 142212Z 20023KT 10/M00 A2996 RMK A01 T00951001  RH  051%=      5-min Rain = 0
KST4 142213Z 21019KT 10/M00 A2996 RMK A01 T00951001  RH  051%=      5-min Rain = 0
KST4 142214Z 20020KT 10/00 A2996 RMK A01 T009500-0  RH  052%=      5-min Rain = 0
KST4 142215Z 20018KT 10/M00 A2996 RMK A01 T00951001  RH  051%=      5-min Rain = 0
KST4 142216Z 19021KT 10/00 A2996 RMK A01 T00970001  RH  051%=      5-min Rain = 0
KST4 142217Z 19022KT 10/00 A2996 RMK A01 T009800-0  RH  050%=      5-min Rain = 0
KST4 142218Z 20019KT 10/M00 A2996 RMK A01 T00981001  RH  050%=      5-min Rain = 0
KST4 142219Z 20025KT 10/M00 A2996 RMK A01 T01001001  RH  050%=      5-min Rain = 0
KST4 142220Z 21021KT 10/M00 A2996 RMK A01 T01011001  RH  049%=      5-min Rain = 0
KST4 142221Z 21019KT 10/M00 A2996 RMK A01 T01011001  RH  049%=      5-min Rain = 0
KST4 142222Z 20020G25KT 10/M00 A2996 RMK A01 T01011001  RH  049%=      5-min Rain = 0
KST4 142223Z 19022KT 10/M00 A2996 RMK A01 T01001001  RH  049%=      5-min Rain = 0
KST4 142224Z 20020G25KT 10/M00 A2996 RMK A01 T00991001  RH  050%=      5-min Rain = 0
KST4 142225Z 19023KT 10/M00 A2996 RMK A01 T00981001  RH  050%=      5-min Rain = 0
KST4 142226Z 20022G27KT 10/M00 A2996 RMK A01 T00981001  RH  050%=      5-min Rain = 0
KST4 142227Z 20019KT 10/M00 A2996 RMK A01 T00971001  RH  051%=      5-min Rain = 0
KST4 142228Z 20020KT 10/00 A2996 RMK A01 T009700-0  RH  051%=      5-min Rain = 0
KST4 142229Z 20022G27KT 10/M00 A2996 RMK A01 T00971001  RH  051%=      5-min Rain = 0
KST4 142230Z 21022KT 10/M00 A2996 RMK A01 T00961002  RH  050%=      5-min Rain = 0
KST4 142231Z 20020KT 10/M00 A2996 RMK A01 T00951002  RH  051%=      5-min Rain = 0
KST4 142232Z 20021KT 10/M00 A2996 RMK A01 T00951001  RH  051%=      5-min Rain = 0
KST4 142233Z 20020KT 10/M00 A2996 RMK A01 T00951001  RH  051%=      5-min Rain = 0
KST4 142234Z 20022KT 10/00 A2996 RMK A01 T009500-0  RH  051%=      5-min Rain = 0
KST4 142235Z 20022KT 09/00 A2996 RMK A01 T009400-0  RH  052%=      5-min Rain = 0
KST4 142236Z 20019G25KT 10/00 A2996 RMK A01 T009500-0  RH  052%=      5-min Rain = 0
KST4 142237Z 20023KT 10/00 A2995 RMK A01 T00970002  RH  052%=      5-min Rain = 0
KST4 142238Z 20021KT 10/00 A2995 RMK A01 T00990003  RH  051%=      5-min Rain = 0
KST4 142239Z 19021G26KT 10/00 A2995 RMK A01 T01010003  RH  051%=      5-min Rain = 0
KST4 142240Z 19018KT 10/00 A2995 RMK A01 T01010004  RH  051%=      5-min Rain = 0
KST4 142241Z 19017KT 10/00 A2995 RMK A01 T01010004  RH  051%=      5-min Rain = 0
KST4 142242Z 18020KT 10/00 A2995 RMK A01 T01000004  RH  051%=      5-min Rain = 0
KST4 142243Z 19018KT 10/00 A2995 RMK A01 T00980002  RH  051%=      5-min Rain = 0
KST4 142244Z 20023KT 10/00 A2995 RMK A01 T00980003  RH  052%=      5-min Rain = 0
KST4 142245Z 20022G27KT 10/00 A2995 RMK A01 T00980002  RH  051%=      5-min Rain = 0
KST4 142246Z 21022KT 10/00 A2995 RMK A01 T00970001  RH  051%=      5-min Rain = 0
KST4 142247Z 19021KT 10/00 A2995 RMK A01 T00970002  RH  052%=      5-min Rain = 0
KST4 142248Z 20020G25KT 10/00 A2995 RMK A01 T00970002  RH  052%=      5-min Rain = 0
KST4 142249Z 20020KT 10/00 A2995 RMK A01 T00980003  RH  052%=      5-min Rain = 0
KST4 142250Z 19017KT 10/01 A2995 RMK A01 T01000005  RH  052%=      5-min Rain = 0
KST4 142251Z 20017KT 11/01 A2995 RMK A01 T01050009  RH  051%=      5-min Rain = 0
KST4 142252Z 19021KT 11/01 A2994 RMK A01 T01090007  RH  049%=      5-min Rain = 0
KST4 142253Z 19022KT 11/01 A2994 RMK A01 T01110006  RH  048%=      5-min Rain = 0
KST4 142254Z 19019KT 11/01 A2994 RMK A01 T01110006  RH  048%=      5-min Rain = 0
KST4 142255Z 19020KT 11/01 A2994 RMK A01 T01120006  RH  048%=      5-min Rain = 0
KST4 142256Z 20020G25KT 11/01 A2994 RMK A01 T01130006  RH  048%=      5-min Rain = 0
KST4 142257Z 20023KT 11/00 A2994 RMK A01 T01130004  RH  047%=      5-min Rain = 0
KST4 142258Z 20020KT 11/00 A2994 RMK A01 T01130002  RH  046%=      5-min Rain = 0
KST4 142259Z 20022G27KT 11/00 A2994 RMK A01 T01140004  RH  046%=      5-min Rain = 0
KST4 142300Z 20021KT 12/00 A2994 RMK A01 T01150002  RH  046%=      5-min Rain = 0
KST4 142301Z 20020KT 12/00 A2994 RMK A01 T01160003  RH  046%=      5-min Rain = 0
KST4 142302Z 21021G27KT 12/00 A2994 RMK A01 T01170001  RH  045%=      5-min Rain = 0
KST4 142303Z 20024KT 12/M00 A2994 RMK A01 T01171001  RH  044%=      5-min Rain = 0
KST4 142304Z 21023G28KT 12/M00 A2994 RMK A01 T01171001  RH  044%=      5-min Rain = 0
KST4 142305Z 21022KT 12/00 A2994 RMK A01 T011700-0  RH  044%=      5-min Rain = 0
KST4 142306Z 21020KT 12/00 A2994 RMK A01 T01170000  RH  045%=      5-min Rain = 0
KST4 142307Z 19016KT 12/00 A2994 RMK A01 T01170002  RH  045%=      5-min Rain = 0
KST4 142308Z 19017G22KT 12/01 A2994 RMK A01 T01180006  RH  046%=      5-min Rain = 0
KST4 142309Z 19017G22KT 12/01 A2994 RMK A01 T01170006  RH  046%=      5-min Rain = 0
KST4 142310Z 19019KT 12/01 A2994 RMK A01 T01170005  RH  046%=      5-min Rain = 0
KST4 142311Z 19018KT 12/00 A2994 RMK A01 T01170003  RH  046%=      5-min Rain = 0
KST4 142312Z 20017KT 12/00 A2994 RMK A01 T01170004  RH  046%=      5-min Rain = 0
KST4 142313Z 20016KT 12/00 A2994 RMK A01 T01180004  RH  045%=      5-min Rain = 0
KST4 142314Z 20021KT 12/00 A2994 RMK A01 T01180003  RH  045%=      5-min Rain = 0
KST4 142315Z 20020KT 12/00 A2994 RMK A01 T01170002  RH  045%=      5-min Rain = 0
KST4 142316Z 20017KT 12/00 A2994 RMK A01 T01170003  RH  046%=      5-min Rain = 0
KST4 142317Z 19016KT 12/00 A2994 RMK A01 T01170003  RH  046%=      5-min Rain = 0
KST4 142318Z 20018KT 12/00 A2993 RMK A01 T01170003  RH  045%=      5-min Rain = 0
KST4 142319Z 20020KT 12/00 A2993 RMK A01 T01170001  RH  045%=      5-min Rain = 0
KST4 142320Z 20021KT 12/M00 A2993 RMK A01 T01181001  RH  044%=      5-min Rain = 0
KST4 142321Z 20018KT 12/M00 A2993 RMK A01 T01181002  RH  043%=      5-min Rain = 0
KST4 142322Z 20021KT 12/M00 A2993 RMK A01 T01191004  RH  043%=      5-min Rain = 0
KST4 142323Z 20018KT 12/M01 A2993 RMK A01 T01191006  RH  042%=      5-min Rain = 0
KST4 142324Z 20019KT 12/M01 A2993 RMK A01 T01191006  RH  042%=      5-min Rain = 0
KST4 142325Z 20019G26KT 12/M01 A2993 RMK A01 T01191007  RH  042%=      5-min Rain = 0
KST4 142326Z 20019G24KT 12/M01 A2993 RMK A01 T01191009  RH  041%=      5-min Rain = 0
KST4 142327Z 20017KT 12/M01 A2993 RMK A01 T01201009  RH  041%=      5-min Rain = 0
KST4 142328Z 20016KT 12/M01 A2993 RMK A01 T01191008  RH  041%=      5-min Rain = 0
KST4 142329Z 20019KT 12/M01 A2993 RMK A01 T01191010  RH  041%=      5-min Rain = 0
KST4 142330Z 19015KT 12/M01 A2993 RMK A01 T01191011  RH  040%=      5-min Rain = 0
KST4 142331Z 20018KT 12/M01 A2993 RMK A01 T01191011  RH  041%=      5-min Rain = 0
KST4 142332Z 20021G26KT 12/M01 A2993 RMK A01 T01191012  RH  040%=      5-min Rain = 0
KST4 142333Z 20018KT 12/M01 A2993 RMK A01 T01181013  RH  040%=      5-min Rain = 0
KST4 142334Z 20017KT 12/M01 A2993 RMK A01 T01181012  RH  040%=      5-min Rain = 0
KST4 142335Z 19016G21KT 12/M01 A2993 RMK A01 T01181011  RH  041%=      5-min Rain = 0
KST4 142336Z 19015KT 12/M01 A2993 RMK A01 T01171005  RH  043%=      5-min Rain = 0
KST4 142337Z 18015KT 12/00 A2993 RMK A01 T011500-0  RH  045%=      5-min Rain = 0
KST4 142338Z 18015KT 11/00 A2993 RMK A01 T01130002  RH  046%=      5-min Rain = 0
KST4 142339Z 18012KT 11/00 A2993 RMK A01 T01120003  RH  047%=      5-min Rain = 0
KST4 142340Z 18015KT 11/00 A2993 RMK A01 T01120003  RH  047%=      5-min Rain = 0
KST4 142341Z 19016KT 11/00 A2993 RMK A01 T01110003  RH  047%=      5-min Rain = 0
KST4 142342Z 19017G22KT 11/00 A2993 RMK A01 T01110003  RH  047%=      5-min Rain = 0
KST4 142343Z 19016KT 11/00 A2993 RMK A01 T01110003  RH  047%=      5-min Rain = 0
KST4 142344Z 19017G22KT 11/00 A2993 RMK A01 T01110002  RH  047%=      5-min Rain = 0
KST4 142345Z 19014KT 11/00 A2993 RMK A01 T01110002  RH  047%=      5-min Rain = 0
KST4 142346Z 18014KT 11/00 A2993 RMK A01 T01100002  RH  047%=      5-min Rain = 0
KST4 142347Z 17013KT 11/00 A2993 RMK A01 T01090002  RH  048%=      5-min Rain = 0
KST4 142348Z 18016KT 11/01 A2993 RMK A01 T01070006  RH  049%=      5-min Rain = 0
KST4 142349Z 18017KT 11/01 A2993 RMK A01 T01050008  RH  051%=      5-min Rain = 0
KST4 142350Z 17017KT 10/01 A2992 RMK A01 T01020009  RH  052%=      5-min Rain = 0
KST4 142351Z 18017KT 10/01 A2993 RMK A01 T01000010  RH  053%=      5-min Rain = 0
KST4 142352Z 18019KT 10/01 A2993 RMK A01 T00980010  RH  054%=      5-min Rain = 0
KST4 142353Z 18018KT 10/01 A2993 RMK A01 T00970010  RH  055%=      5-min Rain = 0
KST4 142354Z 17017KT 10/01 A2993 RMK A01 T00950010  RH  055%=      5-min Rain = 0
KST4 142355Z 17017KT 09/01 A2993 RMK A01 T00940010  RH  056%=      5-min Rain = 0
KST4 142356Z 17019KT 09/01 A2992 RMK A01 T00920009  RH  056%=      5-min Rain = 0
KST4 142357Z 17017KT 09/01 A2992 RMK A01 T00910010  RH  057%=      5-min Rain = 0
KST4 142358Z 17019KT 09/01 A2992 RMK A01 T00880009  RH  057%=      5-min Rain = 0
KST4 142359Z 17018KT 09/01 A2992 RMK A01 T00870009  RH  058%=      5-min Rain = 0
KST4 150000Z 17019KT 09/01 A2992 RMK A01 T00860009  RH  058%=      5-min Rain = 0
KST4 150001Z 17020KT 09/01 A2992 RMK A01 T00850009  RH  059%=      5-min Rain = 0
KST4 150002Z 17017KT 08/01 A2992 RMK A01 T00830008  RH  059%=      5-min Rain = 0
KST4 150003Z 17017KT 08/01 A2992 RMK A01 T00820008  RH  060%=      5-min Rain = 0
KST4 150004Z 17017KT 08/01 A2992 RMK A01 T00800008  RH  060%=      5-min Rain = 0
KST4 150005Z 18016KT 08/01 A2992 RMK A01 T00780007  RH  061%=      5-min Rain = 0
KST4 150006Z 17016KT 08/01 A2992 RMK A01 T00770007  RH  061%=      5-min Rain = 0
KST4 150007Z 17015KT 08/01 A2992 RMK A01 T00770007  RH  062%=      5-min Rain = 0
KST4 150008Z 17016KT 08/01 A2992 RMK A01 T00760008  RH  062%=      5-min Rain = 0
KST4 150009Z 17014KT 08/01 A2993 RMK A01 T00760008  RH  062%=      5-min Rain = 0
KST4 150010Z 17014KT 07/01 A2992 RMK A01 T00740007  RH  062%=      5-min Rain = 0
KST4 150011Z 17013KT 07/01 A2992 RMK A01 T00720006  RH  063%=      5-min Rain = 0
KST4 150012Z 17014KT 07/01 A2992 RMK A01 T00710006  RH  063%=      5-min Rain = 0
KST4 150013Z 17013KT 07/01 A2992 RMK A01 T00700007  RH  064%=      5-min Rain = 0
KST4 150014Z 17012KT 07/01 A2992 RMK A01 T00700007  RH  064%=      5-min Rain = 0
KST4 150015Z 17012KT 07/01 A2992 RMK A01 T00680006  RH  064%=      5-min Rain = 0
KST4 150016Z 17012KT 07/01 A2993 RMK A01 T00670006  RH  065%=      5-min Rain = 0
KST4 150017Z 16012KT 07/01 A2993 RMK A01 T00660006  RH  065%=      5-min Rain = 0
KST4 150018Z 16011KT 07/01 A2993 RMK A01 T00660006  RH  066%=      5-min Rain = 0
KST4 150019Z 16010KT 06/01 A2993 RMK A01 T00640005  RH  066%=      5-min Rain = 0
KST4 150020Z 16011KT 06/00 A2993 RMK A01 T00630004  RH  066%=      5-min Rain = 0
KST4 150021Z 16010KT 06/01 A2993 RMK A01 T00620005  RH  067%=      5-min Rain = 0
KST4 150022Z 16009KT 06/01 A2993 RMK A01 T00620005  RH  067%=      5-min Rain = 0
KST4 150023Z 16008KT 06/00 A2993 RMK A01 T00610004  RH  067%=      5-min Rain = 0
KST4 150024Z 16008KT 06/00 A2993 RMK A01 T00590003  RH  067%=      5-min Rain = 0
KST4 150025Z 17009KT 06/00 A2993 RMK A01 T00580004  RH  068%=      5-min Rain = 0
KST4 150026Z 17011KT 06/01 A2993 RMK A01 T00580006  RH  069%=      5-min Rain = 0
KST4 150027Z 17014KT 06/01 A2992 RMK A01 T00600008  RH  069%=      5-min Rain = 0
KST4 150028Z 18015KT 06/01 A2992 RMK A01 T00610009  RH  069%=      5-min Rain = 0
KST4 150029Z 18017KT 06/01 A2992 RMK A01 T00620009  RH  069%=      5-min Rain = 0
KST4 150030Z 18016KT 06/01 A2992 RMK A01 T00630009  RH  069%=      5-min Rain = 0
KST4 150031Z 18016KT 06/01 A2992 RMK A01 T00620009  RH  068%=      5-min Rain = 0
KST4 150032Z 18017KT 06/01 A2992 RMK A01 T00630009  RH  069%=      5-min Rain = 0
KST4 150033Z 18017KT 06/01 A2992 RMK A01 T00630009  RH  069%=      5-min Rain = 0
KST4 150034Z 18016KT 06/01 A2992 RMK A01 T00630009  RH  069%=      5-min Rain = 0
KST4 150035Z 18017KT 06/01 A2992 RMK A01 T00630009  RH  069%=      5-min Rain = 0
KST4 150036Z 17016KT 06/01 A2992 RMK A01 T00630010  RH  069%=      5-min Rain = 0
KST4 150037Z 17016KT 06/01 A2992 RMK A01 T00620009  RH  069%=      5-min Rain = 0
KST4 150038Z 17017KT 06/01 A2992 RMK A01 T00620009  RH  069%=      5-min Rain = 0
KST4 150039Z 18017KT 06/01 A2992 RMK A01 T00610009  RH  069%=      5-min Rain = 0
KST4 150040Z 17017KT 06/01 A2992 RMK A01 T00600009  RH  069%=      5-min Rain = 0
KST4 150041Z 17016KT 06/01 A2992 RMK A01 T00600008  RH  069%=      5-min Rain = 0
KST4 150042Z 17016KT 06/01 A2992 RMK A01 T00580007  RH  070%=      5-min Rain = 0
KST4 150043Z 17015KT 06/01 A2992 RMK A01 T00570007  RH  070%=      5-min Rain = 0
KST4 150044Z 17014KT 06/01 A2993 RMK A01 T00560007  RH  071%=      5-min Rain = 0
KST4 150045Z 17015KT 05/01 A2993 RMK A01 T00540006  RH  071%=      5-min Rain = 0
KST4 150046Z 17015KT 05/01 A2993 RMK A01 T00540007  RH  072%=      5-min Rain = 0
KST4 150047Z 17015KT 05/01 A2993 RMK A01 T00530007  RH  072%=      5-min Rain = 0
KST4 150048Z 17015KT 05/01 A2993 RMK A01 T00520006  RH  072%=      5-min Rain = 0
KST4 150049Z 17016KT 05/01 A2993 RMK A01 T00520006  RH  073%=      5-min Rain = 0
KST4 150050Z 17017KT 05/01 A2993 RMK A01 T00510006  RH  073%=      5-min Rain = 0
KST4 150051Z 17015KT 05/01 A2993 RMK A01 T00510007  RH  073%=      5-min Rain = 0
KST4 150052Z 17014KT 05/01 A2993 RMK A01 T00520007  RH  073%=      5-min Rain = 0
KST4 150053Z 17014KT 05/01 A2993 RMK A01 T00510006  RH  073%=      5-min Rain = 0
KST4 150054Z 17014KT 05/01 A2993 RMK A01 T00510007  RH  073%=      5-min Rain = 0
KST4 150055Z 17016KT 05/01 A2993 RMK A01 T00510007  RH  073%=      5-min Rain = 0
KST4 150056Z 17015KT 05/01 A2993 RMK A01 T00500007  RH  073%=      5-min Rain = 0
KST4 150057Z 17015KT 05/01 A2993 RMK A01 T00500007  RH  073%=      5-min Rain = 0
KST4 150058Z 17016KT 05/01 A2993 RMK A01 T00500007  RH  074%=      5-min Rain = 0
KST4 150059Z 17017KT 05/01 A2993 RMK A01 T00510008  RH  074%=      5-min Rain = 0
KST4 150100Z 17017KT 05/01 A2993 RMK A01 T00500008  RH  074%=      5-min Rain = 0
KST4 150101Z 17018KT 05/01 A2993 RMK A01 T00500008  RH  074%=      5-min Rain = 0
KST4 150102Z 18018KT 05/01 A2993 RMK A01 T00500008  RH  074%=      5-min Rain = 0
KST4 150103Z 17018KT 05/01 A2993 RMK A01 T00510008  RH  074%=      5-min Rain = 0
KST4 150104Z 17017KT 05/01 A2993 RMK A01 T00500008  RH  074%=      5-min Rain = 0
KST4 150105Z 17018KT 05/01 A2993 RMK A01 T00500008  RH  074%=      5-min Rain = 0
KST4 150106Z 18016KT 05/01 A2993 RMK A01 T00500008  RH  075%=      5-min Rain = 0
KST4 150107Z 17017KT 05/01 A2993 RMK A01 T00500009  RH  075%=      5-min Rain = 0
KST4 150108Z 17017KT 05/01 A2993 RMK A01 T00490008  RH  075%=      5-min Rain = 0
KST4 150109Z 17015KT 05/01 A2993 RMK A01 T00500009  RH  075%=      5-min Rain = 0
KST4 150110Z 17015KT 05/01 A2994 RMK A01 T00480007  RH  075%=      5-min Rain = 0
KST4 150111Z 17015KT 05/01 A2994 RMK A01 T00470007  RH  075%=      5-min Rain = 0
KST4 150112Z 17014KT 05/01 A2994 RMK A01 T00460007  RH  076%=      5-min Rain = 0
KST4 150113Z 17015KT 05/01 A2994 RMK A01 T00450006  RH  076%=      5-min Rain = 0
KST4 150114Z 17015KT 04/01 A2994 RMK A01 T00440006  RH  076%=      5-min Rain = 0
KST4 150115Z 17015KT 05/01 A2994 RMK A01 T00450007  RH  077%=      5-min Rain = 0
KST4 150116Z 17014KT 05/01 A2994 RMK A01 T00450007  RH  076%=      5-min Rain = 0
KST4 150117Z 17015KT 05/01 A2994 RMK A01 T00460008  RH  077%=      5-min Rain = 0
KST4 150118Z 17015KT 05/01 A2994 RMK A01 T00460008  RH  076%=      5-min Rain = 0
KST4 150119Z 17015KT 05/01 A2994 RMK A01 T00460008  RH  076%=      5-min Rain = 0
KST4 150120Z 17015KT 05/01 A2994 RMK A01 T00460009  RH  077%=      5-min Rain = 0
KST4 150121Z 17015KT 05/01 A2994 RMK A01 T00460009  RH  077%=      5-min Rain = 0
KST4 150122Z 17014KT 05/01 A2994 RMK A01 T00460009  RH  077%=      5-min Rain = 0
KST4 150123Z 17015KT 05/01 A2994 RMK A01 T00460009  RH  077%=      5-min Rain = 0
KST4 150124Z 17014KT 05/01 A2994 RMK A01 T00460010  RH  078%=      5-min Rain = 0
KST4 150125Z 17014KT 05/01 A2994 RMK A01 T00450010  RH  078%=      5-min Rain = 0
KST4 150126Z 17016KT 04/01 A2994 RMK A01 T00440010  RH  078%=      5-min Rain = 0
KST4 150127Z 17015KT 05/01 A2994 RMK A01 T00450011  RH  079%=      5-min Rain = 0
KST4 150128Z 17016KT 05/01 A2994 RMK A01 T00450011  RH  079%=      5-min Rain = 0
KST4 150129Z 17016KT 05/01 A2994 RMK A01 T00450012  RH  079%=      5-min Rain = 0
KST4 150130Z 17015KT 05/01 A2994 RMK A01 T00450012  RH  079%=      5-min Rain = 0
KST4 150131Z 17016KT 05/01 A2994 RMK A01 T00450011  RH  079%=      5-min Rain = 0
KST4 150132Z 17016KT 04/01 A2994 RMK A01 T00440012  RH  079%=      5-min Rain = 0
KST4 150133Z 17018KT 04/01 A2994 RMK A01 T00440012  RH  079%=      5-min Rain = 0
KST4 150134Z 18017KT 05/01 A2994 RMK A01 T00450012  RH  079%=      5-min Rain = 0
KST4 150135Z 17016KT 05/01 A2994 RMK A01 T00450012  RH  079%=      5-min Rain = 0
KST4 150136Z 18017KT 04/01 A2994 RMK A01 T00440012  RH  080%=      5-min Rain = 0
KST4 150137Z 18018KT 04/01 A2993 RMK A01 T00440012  RH  080%=      5-min Rain = 0
KST4 150138Z 18018G23KT 04/01 A2993 RMK A01 T00440012  RH  080%=      5-min Rain = 0
KST4 150139Z 18018G23KT 04/01 A2994 RMK A01 T00440012  RH  080%=      5-min Rain = 0
KST4 150140Z 18018KT 04/01 A2994 RMK A01 T00430012  RH  080%=      5-min Rain = 0
KST4 150141Z 18016KT 04/01 A2994 RMK A01 T00420012  RH  080%=      5-min Rain = 0
KST4 150142Z 18017KT 04/01 A2994 RMK A01 T00420011  RH  081%=      5-min Rain = 0
KST4 150143Z 18017KT 04/01 A2994 RMK A01 T00410011  RH  081%=      5-min Rain = 0
KST4 150144Z 18016KT 04/01 A2994 RMK A01 T00410011  RH  081%=      5-min Rain = 0
KST4 150145Z 18017KT 04/01 A2994 RMK A01 T00400011  RH  081%=      5-min Rain = 0
KST4 150146Z 18017KT 04/01 A2994 RMK A01 T00390010  RH  081%=      5-min Rain = 0
KST4 150147Z 18018KT 04/01 A2994 RMK A01 T00390011  RH  082%=      5-min Rain = 0
KST4 150148Z 18014KT 04/01 A2994 RMK A01 T00390011  RH  082%=      5-min Rain = 0
KST4 150149Z 18015KT 04/01 A2994 RMK A01 T00370009  RH  082%=      5-min Rain = 0
KST4 150150Z 18015KT 04/01 A2994 RMK A01 T00370009  RH  082%=      5-min Rain = 0
KST4 150151Z 18016KT 04/01 A2994 RMK A01 T00350009  RH  083%=      5-min Rain = 0
KST4 150152Z 18018KT 04/01 A2994 RMK A01 T00350009  RH  083%=      5-min Rain = 0
KST4 150153Z 19016KT 04/01 A2994 RMK A01 T00350010  RH  083%=      5-min Rain = 0
KST4 150154Z 18017KT 04/01 A2994 RMK A01 T00350009  RH  083%=      5-min Rain = 0
KST4 150155Z 19016G23KT 04/01 A2993 RMK A01 T00350009  RH  083%=      5-min Rain = 0
KST4 150156Z 19018KT 03/01 A2993 RMK A01 T00340009  RH  084%=      5-min Rain = 0
KST4 150157Z 19020KT 03/01 A2993 RMK A01 T00340010  RH  084%=      5-min Rain = 0
KST4 150158Z 19018KT 03/01 A2993 RMK A01 T00340009  RH  084%=      5-min Rain = 0
KST4 150159Z 19016KT 03/01 A2993 RMK A01 T00340009  RH  084%=      5-min Rain = 0
KST4 150200Z 19018KT 03/01 A2993 RMK A01 T00330009  RH  084%=      5-min Rain = 0
KST4 150201Z 19018KT 03/01 A2993 RMK A01 T00330009  RH  084%=      5-min Rain = 0
KST4 150202Z 19017KT 03/01 A2994 RMK A01 T00330009  RH  084%=      5-min Rain = 0
KST4 150203Z 19018KT 03/01 A2993 RMK A01 T00330009  RH  084%=      5-min Rain = 0
KST4 150204Z 19020KT 03/01 A2994 RMK A01 T00330010  RH  085%=      5-min Rain = 0
KST4 150205Z 19015KT 03/01 A2994 RMK A01 T00330009  RH  084%=      5-min Rain = 0
KST4 150206Z 18016KT 03/01 A2994 RMK A01 T00330009  RH  084%=      5-min Rain = 0
KST4 150207Z 19017KT 03/01 A2994 RMK A01 T00320009  RH  085%=      5-min Rain = 0
KST4 150208Z 19018G24KT 03/01 A2994 RMK A01 T00320009  RH  085%=      5-min Rain = 0
KST4 150209Z 19017KT 03/01 A2994 RMK A01 T00320010  RH  085%=      5-min Rain = 0
KST4 150210Z 19016G21KT 03/01 A2994 RMK A01 T00330009  RH  085%=      5-min Rain = 0
KST4 150211Z 19017KT 03/01 A2994 RMK A01 T00320009  RH  085%=      5-min Rain = 0
KST4 150212Z 19017KT 03/01 A2994 RMK A01 T00320010  RH  085%=      5-min Rain = 0
KST4 150213Z 19017KT 03/01 A2994 RMK A01 T00320009  RH  085%=      5-min Rain = 0
KST4 150214Z 20017KT 03/01 A2994 RMK A01 T00320009  RH  085%=      5-min Rain = 0
KST4 150215Z 20017KT 03/01 A2994 RMK A01 T00310009  RH  085%=      5-min Rain = 0
KST4 150216Z 20018KT 03/01 A2994 RMK A01 T00310009  RH  086%=      5-min Rain = 0
KST4 150217Z 20017KT 03/01 A2994 RMK A01 T00310009  RH  086%=      5-min Rain = 0
KST4 150218Z 20017G23KT 03/01 A2994 RMK A01 T00310010  RH  086%=      5-min Rain = 0
KST4 150219Z 20019KT 03/01 A2994 RMK A01 T00310009  RH  086%=      5-min Rain = 0
KST4 150220Z 20018G23KT 03/01 A2994 RMK A01 T00310010  RH  086%=      5-min Rain = 0
KST4 150221Z 20018KT 03/01 A2994 RMK A01 T00320010  RH  086%=      5-min Rain = 0
KST4 150222Z 20021G27KT 03/01 A2994 RMK A01 T00320010  RH  086%=      5-min Rain = 0
KST4 150223Z 20019KT 03/01 A2994 RMK A01 T00320010  RH  086%=      5-min Rain = 0
KST4 150224Z 20018G23KT 03/01 A2994 RMK A01 T00330010  RH  085%=      5-min Rain = 0
KST4 150225Z 20020KT 03/01 A2994 RMK A01 T00320010  RH  086%=      5-min Rain = 0
KST4 150226Z 20017KT 03/01 A2994 RMK A01 T00330011  RH  085%=      5-min Rain = 0
KST4 150227Z 20018G23KT 03/01 A2994 RMK A01 T00330010  RH  085%=      5-min Rain = 0
KST4 150228Z 20019KT 03/01 A2994 RMK A01 T00320010  RH  085%=      5-min Rain = 0
KST4 150229Z 20019KT 03/01 A2994 RMK A01 T00320010  RH  085%=      5-min Rain = 0
KST4 150230Z 20020KT 03/01 A2994 RMK A01 T00320010  RH  086%=      5-min Rain = 0
KST4 150231Z 20019G25KT 03/01 A2994 RMK A01 T00310010  RH  086%=      5-min Rain = 0
KST4 150232Z 20018KT 03/01 A2994 RMK A01 T00310010  RH  086%=      5-min Rain = 0
KST4 150233Z 20019G24KT 03/01 A2994 RMK A01 T00310009  RH  086%=      5-min Rain = 0
KST4 150234Z 20017KT 03/01 A2994 RMK A01 T00310009  RH  086%=      5-min Rain = 0
KST4 150235Z 19019G24KT 03/01 A2994 RMK A01 T00300009  RH  086%=      5-min Rain = 0
KST4 150236Z 19020KT 03/01 A2994 RMK A01 T00300009  RH  086%=      5-min Rain = 0
KST4 150237Z 20020G26KT 03/01 A2994 RMK A01 T00300009  RH  086%=      5-min Rain = 0
KST4 150238Z 20018KT 03/01 A2994 RMK A01 T00300009  RH  086%=      5-min Rain = 0
KST4 150239Z 20017KT 03/01 A2994 RMK A01 T00300009  RH  086%=      5-min Rain = 0
KST4 150240Z 20018KT 03/01 A2994 RMK A01 T00290008  RH  086%=      5-min Rain = 0
KST4 150241Z 20017G22KT 03/01 A2994 RMK A01 T00290009  RH  087%=      5-min Rain = 0
KST4 150242Z 20016KT 03/01 A2994 RMK A01 T00290008  RH  086%=      5-min Rain = 0
KST4 150243Z 19018KT 03/01 A2994 RMK A01 T00280008  RH  087%=      5-min Rain = 0
KST4 150244Z 20019KT 03/01 A2994 RMK A01 T00280008  RH  087%=      5-min Rain = 0
KST4 150245Z 20017KT 03/01 A2994 RMK A01 T00280008  RH  087%=      5-min Rain = 0
KST4 150246Z 20018KT 03/01 A2994 RMK A01 T00280008  RH  087%=      5-min Rain = 0
KST4 150247Z 20019KT 03/01 A2994 RMK A01 T00280008  RH  087%=      5-min Rain = 0
KST4 150248Z 19018KT 03/01 A2994 RMK A01 T00280008  RH  087%=      5-min Rain = 0
KST4 150249Z 20019KT 03/01 A2994 RMK A01 T00280008  RH  087%=      5-min Rain = 0
KST4 150250Z 20021KT 03/01 A2994 RMK A01 T00280008  RH  087%=      5-min Rain = 0
KST4 150251Z 19018KT 03/01 A2994 RMK A01 T00280008  RH  087%=      5-min Rain = 0
KST4 150252Z 19018KT 03/01 A2994 RMK A01 T00280008  RH  087%=      5-min Rain = 0
KST4 150253Z 19021KT 03/01 A2994 RMK A01 T00270008  RH  087%=      5-min Rain = 0
KST4 150254Z 20022KT 03/01 A2994 RMK A01 T00270008  RH  087%=      5-min Rain = 0
KST4 150255Z 20018G23KT 03/01 A2994 RMK A01 T00280008  RH  087%=      5-min Rain = 0
KST4 150256Z 20020KT 03/01 A2994 RMK A01 T00270007  RH  087%=      5-min Rain = 0
KST4 150257Z 20022G28KT 03/01 A2994 RMK A01 T00270008  RH  087%=      5-min Rain = 0
KST4 150258Z 20022KT 03/01 A2994 RMK A01 T00270008  RH  087%=      5-min Rain = 0
KST4 150259Z 20021KT 03/01 A2994 RMK A01 T00270008  RH  087%=      5-min Rain = 0
KST4 150300Z 20020KT 03/01 A2994 RMK A01 T00280008  RH  087%=      5-min Rain = 0
KST4 150301Z 20023KT 03/01 A2994 RMK A01 T00280009  RH  087%=      5-min Rain = 0
KST4 150302Z 20020KT 03/01 A2994 RMK A01 T00280008  RH  087%=      5-min Rain = 0
KST4 150303Z 20022KT 03/01 A2994 RMK A01 T00280008  RH  087%=      5-min Rain = 0
KST4 150304Z 20020KT 03/01 A2994 RMK A01 T00280008  RH  087%=      5-min Rain = 0
KST4 150305Z 20020KT 03/01 A2994 RMK A01 T00270008  RH  087%=      5-min Rain = 0
KST4 150306Z 20021KT 03/01 A2994 RMK A01 T00270008  RH  087%=      5-min Rain = 0
KST4 150307Z 20021KT 03/01 A2994 RMK A01 T00270008  RH  087%=      5-min Rain = 0
KST4 150308Z 20020KT 03/01 A2994 RMK A01 T00270008  RH  087%=      5-min Rain = 0
KST4 150309Z 20020KT 03/01 A2994 RMK A01 T00280009  RH  087%=      5-min Rain = 0
KST4 150310Z 20020KT 03/01 A2994 RMK A01 T00280008  RH  087%=      5-min Rain = 0
KST4 150311Z 20021KT 03/01 A2994 RMK A01 T00280008  RH  087%=      5-min Rain = 0
KST4 150312Z 20020KT 03/01 A2994 RMK A01 T00280008  RH  087%=      5-min Rain = 0
KST4 150313Z 20020KT 03/01 A2994 RMK A01 T00280008  RH  087%=      5-min Rain = 0
KST4 150314Z 20020KT 03/01 A2995 RMK A01 T00280008  RH  087%=      5-min Rain = 0
KST4 150315Z 20020KT 03/01 A2995 RMK A01 T00280008  RH  087%=      5-min Rain = 0
KST4 150316Z 20019KT 03/01 A2995 RMK A01 T00280008  RH  087%=      5-min Rain = 0
KST4 150317Z 20019KT 03/01 A2995 RMK A01 T00280008  RH  087%=      5-min Rain = 0
KST4 150318Z 20019KT 03/01 A2995 RMK A01 T00280008  RH  087%=      5-min Rain = 0
KST4 150319Z 20018KT 03/01 A2995 RMK A01 T00280008  RH  087%=      5-min Rain = 0
KST4 150320Z 20019KT 03/01 A2995 RMK A01 T00280008  RH  087%=      5-min Rain = 0
KST4 150321Z 20020KT 03/01 A2995 RMK A01 T00280008  RH  087%=      5-min Rain = 0
KST4 150322Z 20018KT 03/01 A2995 RMK A01 T00280008  RH  087%=      5-min Rain = 0
KST4 150323Z 20020G25KT 03/01 A2995 RMK A01 T00280008  RH  087%=      5-min Rain = 0
KST4 150324Z 20018KT 03/01 A2995 RMK A01 T00280008  RH  087%=      5-min Rain = 0
KST4 150325Z 20017KT 03/01 A2995 RMK A01 T00270008  RH  087%=      5-min Rain = 0
KST4 150326Z 20018KT 03/01 A2995 RMK A01 T00270008  RH  087%=      5-min Rain = 0
KST4 150327Z 20018KT 03/01 A2995 RMK A01 T00270008  RH  087%=      5-min Rain = 0
KST4 150328Z 20019KT 03/01 A2995 RMK A01 T00270008  RH  087%=      5-min Rain = 0
KST4 150329Z 20018KT 03/01 A2995 RMK A01 T00270008  RH  087%=      5-min Rain = 0
KST4 150330Z 20018KT 03/01 A2995 RMK A01 T00270007  RH  087%=      5-min Rain = 0
KST4 150331Z 20017KT 03/01 A2995 RMK A01 T00260007  RH  087%=      5-min Rain = 0
KST4 150332Z 20017KT 03/01 A2995 RMK A01 T00250007  RH  088%=      5-min Rain = 0
KST4 150333Z 20019KT 03/01 A2995 RMK A01 T00250007  RH  088%=      5-min Rain = 0
KST4 150334Z 20019KT 03/01 A2995 RMK A01 T00250007  RH  088%=      5-min Rain = 0
KST4 150335Z 20018KT 03/01 A2995 RMK A01 T00250007  RH  088%=      5-min Rain = 0
KST4 150336Z 20019G24KT 03/01 A2995 RMK A01 T00250007  RH  088%=      5-min Rain = 0
KST4 150337Z 20018KT 03/01 A2995 RMK A01 T00260007  RH  088%=      5-min Rain = 0
KST4 150338Z 20018KT 03/01 A2995 RMK A01 T00260007  RH  088%=      5-min Rain = 0
KST4 150339Z 20020KT 03/01 A2995 RMK A01 T00250007  RH  088%=      5-min Rain = 0
KST4 150340Z 20018KT 03/01 A2995 RMK A01 T00260008  RH  088%=      5-min Rain = 0
KST4 150341Z 20018KT 03/01 A2994 RMK A01 T00260007  RH  088%=      5-min Rain = 0
KST4 150342Z 20019KT 03/01 A2994 RMK A01 T00250007  RH  088%=      5-min Rain = 0
KST4 150343Z 20020KT 03/01 A2994 RMK A01 T00250007  RH  088%=      5-min Rain = 0
KST4 150344Z 20021KT 03/01 A2994 RMK A01 T00250007  RH  088%=      5-min Rain = 0
KST4 150345Z 20019KT 03/01 A2994 RMK A01 T00250007  RH  088%=      5-min Rain = 0
KST4 150346Z 20022KT 02/01 A2994 RMK A01 T00240006  RH  088%=      5-min Rain = 0
KST4 150347Z 20020KT 02/01 A2994 RMK A01 T00240007  RH  088%=      5-min Rain = 0
KST4 150348Z 20021G26KT 02/01 A2994 RMK A01 T00240007  RH  088%=      5-min Rain = 0
KST4 150349Z 20021KT 02/01 A2994 RMK A01 T00240007  RH  088%=      5-min Rain = 0
KST4 150350Z 20021G26KT 03/01 A2994 RMK A01 T00250007  RH  088%=      5-min Rain = 0
KST4 150351Z 20019KT 02/01 A2994 RMK A01 T00240006  RH  088%=      5-min Rain = 0
KST4 150352Z 20020KT 02/01 A2994 RMK A01 T00240006  RH  088%=      5-min Rain = 0
KST4 150353Z 20019G24KT 02/01 A2994 RMK A01 T00230006  RH  088%=      5-min Rain = 0
KST4 150354Z 20019KT 02/01 A2994 RMK A01 T00240006  RH  088%=      5-min Rain = 0
KST4 150355Z 20017KT 02/01 A2995 RMK A01 T00240006  RH  088%=      5-min Rain = 0
KST4 150356Z 20019G24KT 02/01 A2994 RMK A01 T00240006  RH  088%=      5-min Rain = 0
KST4 150357Z 21017KT 02/01 A2995 RMK A01 T00240006  RH  088%=      5-min Rain = 0
KST4 150358Z 21018KT 02/01 A2995 RMK A01 T00230006  RH  088%=      5-min Rain = 0
KST4 150359Z 21018KT 02/01 A2995 RMK A01 T00230006  RH  088%=      5-min Rain = 0
KST4 150400Z 20018KT 02/01 A2995 RMK A01 T00230006  RH  089%=      5-min Rain = 0
KST4 150401Z 21018KT 02/01 A2995 RMK A01 T00230006  RH  088%=      5-min Rain = 0
KST4 150402Z 21017KT 02/01 A2994 RMK A01 T00240006  RH  088%=      5-min Rain = 0
KST4 150403Z 20018KT 02/01 A2994 RMK A01 T00240007  RH  088%=      5-min Rain = 0
KST4 150404Z 21019KT 02/01 A2994 RMK A01 T00240006  RH  088%=      5-min Rain = 0
KST4 150405Z 21019KT 02/01 A2994 RMK A01 T00240007  RH  089%=      5-min Rain = 0
KST4 150406Z 20018KT 02/01 A2994 RMK A01 T00240007  RH  088%=      5-min Rain = 0
KST4 150407Z 21019KT 02/01 A2994 RMK A01 T00240007  RH  088%=      5-min Rain = 0
KST4 150408Z 21017KT 02/01 A2994 RMK A01 T00240007  RH  088%=      5-min Rain = 0
KST4 150409Z 20017KT 02/01 A2994 RMK A01 T00240007  RH  088%=      5-min Rain = 0
KST4 150410Z 21018KT 02/01 A2994 RMK A01 T00240007  RH  088%=      5-min Rain = 0
KST4 150411Z 21019KT 03/01 A2994 RMK A01 T00250007  RH  088%=      5-min Rain = 0
KST4 150412Z 21018KT 03/01 A2994 RMK A01 T00260008  RH  088%=      5-min Rain = 0
KST4 150413Z 21017KT 03/01 A2995 RMK A01 T00270008  RH  088%=      5-min Rain = 0
KST4 150414Z 21019KT 03/01 A2994 RMK A01 T00260008  RH  088%=      5-min Rain = 0
KST4 150415Z 21018KT 03/01 A2994 RMK A01 T00270008  RH  088%=      5-min Rain = 0
KST4 150416Z 21018KT 03/01 A2994 RMK A01 T00270008  RH  087%=      5-min Rain = 0
KST4 150417Z 21020KT 03/01 A2994 RMK A01 T00270008  RH  087%=      5-min Rain = 0
KST4 150418Z 21018KT 03/01 A2995 RMK A01 T00280009  RH  087%=      5-min Rain = 0
KST4 150419Z 21020KT 03/01 A2995 RMK A01 T00280008  RH  087%=      5-min Rain = 0
KST4 150420Z 21018KT 03/01 A2995 RMK A01 T00280009  RH  087%=      5-min Rain = 0
KST4 150421Z 21018KT 03/01 A2995 RMK A01 T00280009  RH  087%=      5-min Rain = 0
KST4 150422Z 21017KT 03/01 A2995 RMK A01 T00280008  RH  087%=      5-min Rain = 0
KST4 150423Z 21020KT 03/01 A2995 RMK A01 T00280009  RH  087%=      5-min Rain = 0
KST4 150424Z 21017KT 03/01 A2995 RMK A01 T00280009  RH  087%=      5-min Rain = 0
KST4 150425Z 21019G24KT 03/01 A2995 RMK A01 T00280009  RH  087%=      5-min Rain = 0
KST4 150426Z 21019KT 03/01 A2995 RMK A01 T00290009  RH  087%=      5-min Rain = 0
KST4 150427Z 21018KT 03/01 A2995 RMK A01 T00290009  RH  087%=      5-min Rain = 0
KST4 150428Z 21017KT 03/01 A2995 RMK A01 T00290009  RH  087%=      5-min Rain = 0
KST4 150429Z 21018KT 03/01 A2995 RMK A01 T00280008  RH  087%=      5-min Rain = 0
KST4 150430Z 21019KT 03/01 A2995 RMK A01 T00280008  RH  087%=      5-min Rain = 0
KST4 150431Z 21018KT 03/01 A2995 RMK A01 T00280008  RH  087%=      5-min Rain = 0
KST4 150432Z 21017KT 03/01 A2995 RMK A01 T00280008  RH  087%=      5-min Rain = 0
KST4 150433Z 21019KT 03/01 A2995 RMK A01 T00280009  RH  087%=      5-min Rain = 0
KST4 150434Z 21018KT 03/01 A2995 RMK A01 T00280009  RH  087%=      5-min Rain = 0
KST4 150435Z 21018KT 03/01 A2995 RMK A01 T00280009  RH  087%=      5-min Rain = 0
KST4 150436Z 21019KT 03/01 A2995 RMK A01 T00280009  RH  087%=      5-min Rain = 0
KST4 150437Z 21019G25KT 03/01 A2995 RMK A01 T00280009  RH  087%=      5-min Rain = 0
KST4 150438Z 21020G25KT 03/01 A2995 RMK A01 T00280009  RH  087%=      5-min Rain = 0
KST4 150439Z 21019KT 03/01 A2995 RMK A01 T00280009  RH  087%=      5-min Rain = 0
KST4 150440Z 21020G25KT 03/01 A2995 RMK A01 T00280009  RH  087%=      5-min Rain = 0
KST4 150441Z 21021KT 03/01 A2995 RMK A01 T00280009  RH  087%=      5-min Rain = 0
KST4 150442Z 21021KT 03/01 A2995 RMK A01 T00290009  RH  087%=      5-min Rain = 0
KST4 150443Z 21021KT 03/01 A2995 RMK A01 T00290009  RH  087%=      5-min Rain = 0
KST4 150444Z 21019KT 03/01 A2995 RMK A01 T00290009  RH  087%=      5-min Rain = 0
KST4 150445Z 20017KT 03/01 A2995 RMK A01 T00280008  RH  087%=      5-min Rain = 0
KST4 150446Z 21019KT 03/01 A2995 RMK A01 T00280008  RH  087%=      5-min Rain = 0
KST4 150447Z 20018KT 03/01 A2995 RMK A01 T00280009  RH  087%=      5-min Rain = 0
KST4 150448Z 21019KT 03/01 A2995 RMK A01 T00270008  RH  087%=      5-min Rain = 0
KST4 150449Z 21018KT 03/01 A2995 RMK A01 T00270008  RH  087%=      5-min Rain = 0
KST4 150450Z 21016KT 03/01 A2995 RMK A01 T00270008  RH  088%=      5-min Rain = 0
KST4 150451Z 21016G21KT 03/01 A2995 RMK A01 T00260008  RH  088%=      5-min Rain = 0
KST4 150452Z 21017KT 03/01 A2995 RMK A01 T00260008  RH  088%=      5-min Rain = 0
KST4 150453Z 21017KT 03/01 A2995 RMK A01 T00260008  RH  088%=      5-min Rain = 0
KST4 150454Z 21017KT 03/01 A2995 RMK A01 T00260008  RH  088%=      5-min Rain = 0
KST4 150455Z 21018KT 03/01 A2995 RMK A01 T00250008  RH  088%=      5-min Rain = 0
KST4 150456Z 20018KT 03/01 A2995 RMK A01 T00250008  RH  088%=      5-min Rain = 0
KST4 150457Z 21017KT 03/01 A2995 RMK A01 T00250008  RH  088%=      5-min Rain = 0
KST4 150458Z 21018KT 03/01 A2995 RMK A01 T00250007  RH  088%=      5-min Rain = 0
KST4 150459Z 21017KT 03/01 A2995 RMK A01 T00250008  RH  088%=      5-min Rain = 0
KST4 150500Z 21019G24KT 03/01 A2994 RMK A01 T00260008  RH  088%=      5-min Rain = 0
KST4 150501Z 21016KT 03/01 A2994 RMK A01 T00260008  RH  088%=      5-min Rain = 0
KST4 150502Z 21018KT 03/01 A2994 RMK A01 T00250007  RH  088%=      5-min Rain = 0
KST4 150503Z 21021KT 03/01 A2994 RMK A01 T00250008  RH  088%=      5-min Rain = 0
KST4 150504Z 21021KT 03/01 A2994 RMK A01 T00260009  RH  089%=      5-min Rain = 0
KST4 150505Z 21019KT 03/01 A2994 RMK A01 T00270009  RH  088%=      5-min Rain = 0
KST4 150506Z 21020G26KT 03/01 A2994 RMK A01 T00270008  RH  088%=      5-min Rain = 0
KST4 150507Z 21023KT 03/01 A2994 RMK A01 T00260008  RH  088%=      5-min Rain = 0
KST4 150508Z 21024KT 03/01 A2993 RMK A01 T00260009  RH  088%=      5-min Rain = 0
KST4 150509Z 21023KT 03/01 A2993 RMK A01 T00270009  RH  088%=      5-min Rain = 0
KST4 150510Z 20022KT 03/01 A2993 RMK A01 T00270009  RH  088%=      5-min Rain = 0
KST4 150511Z 21026KT 03/01 A2993 RMK A01 T00270009  RH  088%=      5-min Rain = 0
KST4 150512Z 21022KT 03/01 A2993 RMK A01 T00280009  RH  088%=      5-min Rain = 0
KST4 150513Z 21025G30KT 03/01 A2993 RMK A01 T00280009  RH  087%=      5-min Rain = 0
KST4 150514Z 21022G27KT 03/01 A2993 RMK A01 T00280009  RH  087%=      5-min Rain = 0
KST4 150515Z 20023KT 03/01 A2993 RMK A01 T00280009  RH  087%=      5-min Rain = 0
KST4 150516Z 21024KT 03/01 A2993 RMK A01 T00280009  RH  087%=      5-min Rain = 0
KST4 150517Z 21023KT 03/01 A2992 RMK A01 T00280009  RH  088%=      5-min Rain = 0
KST4 150518Z 20024KT 03/01 A2992 RMK A01 T00280009  RH  088%=      5-min Rain = 0
KST4 150519Z 21023G28KT 03/01 A2992 RMK A01 T00280009  RH  087%=      5-min Rain = 0
KST4 150520Z 21024G29KT 03/01 A2992 RMK A01 T00280009  RH  087%=      5-min Rain = 0
KST4 150521Z 21024KT 03/01 A2992 RMK A01 T00280009  RH  087%=      5-min Rain = 0
KST4 150522Z 20023KT 03/01 A2992 RMK A01 T00280009  RH  087%=      5-min Rain = 0
KST4 150523Z 21024KT 03/01 A2992 RMK A01 T00280009  RH  087%=      5-min Rain = 0
KST4 150524Z 20023KT 03/01 A2992 RMK A01 T00280009  RH  087%=      5-min Rain = 0
KST4 150525Z 20023KT 03/01 A2992 RMK A01 T00280009  RH  087%=      5-min Rain = 0
KST4 150526Z 21023KT 03/01 A2992 RMK A01 T00280009  RH  087%=      5-min Rain = 0
KST4 150527Z 21022G27KT 03/01 A2992 RMK A01 T00280009  RH  087%=      5-min Rain = 0
KST4 150528Z 20025G31KT 03/01 A2992 RMK A01 T00280009  RH  087%=      5-min Rain = 0
KST4 150529Z 21021G26KT 03/01 A2992 RMK A01 T00280009  RH  087%=      5-min Rain = 0
KST4 150530Z 21025KT 03/01 A2992 RMK A01 T00280009  RH  087%=      5-min Rain = 0
KST4 150531Z 21024G29KT 03/01 A2992 RMK A01 T00290010  RH  087%=      5-min Rain = 0
KST4 150532Z 21023KT 03/01 A2992 RMK A01 T00290010  RH  087%=      5-min Rain = 0
KST4 150533Z 21022KT 03/01 A2992 RMK A01 T00290009  RH  087%=      5-min Rain = 0
KST4 150534Z 21023G29KT 03/01 A2992 RMK A01 T00290009  RH  087%=      5-min Rain = 0
KST4 150535Z 21021G26KT 03/01 A2992 RMK A01 T00280009  RH  087%=      5-min Rain = 0
KST4 150536Z 21026G32KT 03/01 A2992 RMK A01 T00290009  RH  087%=      5-min Rain = 0
KST4 150537Z 21026G32KT 03/01 A2992 RMK A01 T00290010  RH  087%=      5-min Rain = 0
KST4 150538Z 21025KT 03/01 A2992 RMK A01 T00300010  RH  087%=      5-min Rain = 0
KST4 150539Z 21025KT 03/01 A2992 RMK A01 T00300010  RH  087%=      5-min Rain = 0
KST4 150540Z 21022KT 03/01 A2992 RMK A01 T00300009  RH  086%=      5-min Rain = 0
KST4 150541Z 21022KT 03/01 A2992 RMK A01 T00290009  RH  087%=      5-min Rain = 0
KST4 150542Z 21021KT 03/01 A2992 RMK A01 T00290009  RH  087%=      5-min Rain = 0
KST4 150543Z 21023G29KT 03/01 A2992 RMK A01 T00300010  RH  087%=      5-min Rain = 0
KST4 150544Z 21025G30KT 03/01 A2992 RMK A01 T00290010  RH  087%=      5-min Rain = 0
KST4 150545Z 21023KT 03/01 A2992 RMK A01 T00300010  RH  087%=      5-min Rain = 0
KST4 150546Z 21023KT 03/01 A2992 RMK A01 T00300010  RH  087%=      5-min Rain = 0
KST4 150547Z 21024KT 03/01 A2992 RMK A01 T00300010  RH  087%=      5-min Rain = 0
KST4 150548Z 21022G27KT 03/01 A2992 RMK A01 T00300009  RH  086%=      5-min Rain = 0
KST4 150549Z 21022KT 03/01 A2992 RMK A01 T00300010  RH  086%=      5-min Rain = 0
KST4 150550Z 21025KT 03/01 A2992 RMK A01 T00300009  RH  086%=      5-min Rain = 0
KST4 150551Z 22023KT 03/01 A2992 RMK A01 T00300010  RH  086%=      5-min Rain = 0
KST4 150552Z 21022G28KT 03/01 A2992 RMK A01 T00300009  RH  086%=      5-min Rain = 0
KST4 150553Z 21019G24KT 03/01 A2992 RMK A01 T00300009  RH  086%=      5-min Rain = 0
KST4 150554Z 21022G27KT 03/01 A2992 RMK A01 T00300009  RH  086%=      5-min Rain = 0
KST4 150555Z 21024KT 03/01 A2992 RMK A01 T00300009  RH  086%=      5-min Rain = 0
KST4 150556Z 21024KT 03/01 A2992 RMK A01 T00310010  RH  086%=      5-min Rain = 0
KST4 150557Z 22022KT 03/01 A2992 RMK A01 T00310010  RH  086%=      5-min Rain = 0
KST4 150558Z 21021KT 03/01 A2992 RMK A01 T00310009  RH  086%=      5-min Rain = 0
KST4 150559Z 21020KT 03/01 A2992 RMK A01 T00300009  RH  086%=      5-min Rain = 0

Page generated in 0.1475 seconds.